GFSSGP_sfc_temp_000.txt.gz
Temp
68 68 64 64 55 49 45 51 53 55 55 58 60 61 60 58 60 51 58 63 64 64 67 69 73 75 75 75 75 75 76 76 76 75 75 75 75 75 74 73 74 74 75 76 75 74 73 73 74
66 71 64 56 48 42 46 51 56 57 59 59 60 60 56 58 58 57 58 63 65 65 65 66 71 73 74 74 74 75 75 76 76 75 74 73 73 73 72 72 72 73 74 74 73 72 72 71 71
68 69 60 53 44 44 47 54 56 56 58 59 56 58 59 59 57 58 61 63 63 62 64 66 71 73 73 73 73 74 74 74 74 73 73 73 72 71 71 71 71 71 72 71 71 71 70 70 70
66 63 58 50 46 52 55 57 56 56 57 59 58 56 57 59 60 60 62 62 61 60 62 67 71 72 72 72 73 72 73 72 72 72 72 71 70 70 69 69 69 70 70 70 70 69 69 68 69
61 57 49 45 48 55 58 58 57 56 54 57 59 56 55 58 58 60 62 61 59 58 60 63 70 71 71 72 71 71 72 71 71 70 70 70 69 68 68 68 68 68 68 68 68 68 68 68 68
57 55 46 43 48 56 58 59 57 57 55 55 55 52 57 55 57 57 59 56 59 57 58 61 66 69 70 71 71 71 71 70 70 69 69 68 68 67 67 67 67 67 68 68 67 67 67 67 67
54 50 45 44 49 53 59 61 57 57 55 58 57 55 54 51 56 57 57 55 56 56 56 56 58 63 66 68 68 69 69 69 68 68 67 67 66 65 64 65 66 67 67 67 67 66 66 66 65
56 52 44 45 49 54 57 59 58 59 60 57 62 56 56 55 57 56 55 54 53 54 54 53 54 55 55 58 65 66 67 67 66 66 65 64 63 62 61 62 65 67 66 66 65 64 64 63 63
57 48 44 49 51 56 57 56 58 58 56 57 62 57 57 55 55 53 51 51 51 53 54 52 52 52 52 53 57 62 64 64 64 62 61 57 50 52 54 60 63 64 64 64 64 62 61 59 59
54 45 50 57 55 55 58 58 58 55 55 55 57 56 53 54 55 54 51 52 51 51 51 53 51 50 49 57 52 51 54 51 51 51 51 49 49 49 52 56 60 60 60 61 61 60 57 53 48
54 50 55 60 61 60 59 55 59 56 55 58 60 60 53 51 53 55 55 56 55 55 53 53 52 51 49 52 48 47 47 46 47 48 48 48 49 47 46 45 45 45 50 45 47 46 46 47 46
51 57 59 61 61 58 57 57 57 56 67 64 62 59 53 52 53 54 54 55 55 52 54 53 53 51 49 48 48 46 47 45 44 46 47 45 44 44 43 43 42 42 42 42 42 42 44 45 46
54 56 60 61 60 57 58 58 57 57 61 61 62 59 54 55 55 56 57 56 54 52 54 52 53 52 51 48 46 45 45 46 45 45 46 45 43 42 42 42 41 41 41 41 41 42 42 43 44
55 57 57 58 59 58 58 55 57 65 58 59 59 60 56 55 56 55 51 55 53 55 54 53 53 53 52 49 48 48 45 45 44 43 44 45 43 42 42 41 41 40 41 40 41 41 41 41 42
55 54 54 58 56 57 55 52 51 66 56 59 58 57 57 56 57 56 59 57 57 56 55 53 53 52 51 51 49 47 46 46 43 43 43 44 43 42 41 40 39 39 40 40 40 40 40 40 41
48 46 44 55 53 55 57 50 59 61 56 59 58 56 56 58 58 61 61 59 57 56 53 54 57 52 52 52 49 48 46 45 43 42 42 43 43 42 40 39 38 39 39 39 39 38 38 38 38
41 41 41 48 55 52 51 49 57 56 55 56 58 56 57 60 58 59 60 58 56 57 55 52 54 51 51 49 48 45 44 44 43 41 40 42 42 42 40 38 38 39 38 38 39 37 37 36 37
40 38 42 45 50 48 46 49 58 60 55 54 56 54 54 56 61 66 58 59 58 57 55 54 53 51 50 47 43 41 42 40 42 41 40 41 40 41 39 37 38 38 37 36 36 37 36 36 35
44 42 43 48 56 48 48 51 56 62 56 51 55 60 63 64 69 62 57 57 55 54 53 52 51 49 49 46 44 43 44 41 38 39 40 40 40 39 38 37 37 36 36 36 37 36 35 34 34
47 46 47 52 54 47 50 51 57 56 60 62 61 61 60 62 66 55 55 51 52 53 52 51 51 49 51 51 49 45 43 38 41 39 40 41 39 38 38 36 36 36 35 35 35 35 33 33 33
46 44 47 46 48 45 43 46 46 52 55 60 57 60 63 65 66 58 53 50 49 49 50 50 51 50 51 50 45 38 38 36 35 37 37 38 38 37 37 36 35 34 34 33 33 33 34 32 32
47 50 49 44 39 40 41 39 44 50 52 54 56 57 59 61 60 58 51 46 47 49 49 50 50 49 50 48 45 42 45 42 41 42 38 35 37 37 36 36 35 34 33 32 32 34 32 32 31
50 48 45 41 36 34 35 34 42 48 46 52 59 60 61 64 57 53 50 51 49 46 47 49 48 49 48 46 47 44 44 45 36 35 35 37 35 36 34 34 33 33 32 32 33 32 31 31 31
46 44 41 35 35 33 39 39 41 41 48 50 57 61 61 64 56 53 50 47 44 43 46 47 46 46 45 46 45 45 44 38 37 36 37 36 36 34 33 34 32 32 32 32 32 32 31 30 30
44 41 29 26 22 29 40 33 50 49 57 54 58 60 62 62 50 49 47 45 44 43 43 45 44 45 43 44 45 44 44 41 41 38 38 36 35 34 34 33 32 31 31 31 31 30 30 30 29
41 44 35 23 28 39 30 32 45 52 56 56 56 56 54 53 51 50 47 47 45 45 43 45 44 45 44 44 45 45 44 42 43 39 39 38 38 37 35 33 31 30 31 30 30 29 29 29 29
37 35 46 33 18 22 40 44 51 48 53 52 53 52 52 51 50 48 45 45 44 43 44 45 44 45 44 44 44 43 44 42 42 39 38 38 37 35 32 32 31 30 30 30 29 28 28 29 29
44 45 33 31 25 22 33 37 44 49 51 50 52 53 52 50 45 45 45 45 42 43 44 44 45 45 44 43 43 42 42 41 42 35 36 36 34 32 31 31 30 30 29 29 28 27 28 27 27
38 39 39 39 34 34 32 39 46 48 44 48 53 56 49 49 48 47 47 45 43 42 41 43 43 42 41 41 43 40 39 39 39 36 35 33 33 32 32 32 30 29 28 28 27 26 26 25 24
42 44 46 37 33 32 32 37 55 56 56 56 56 56 53 49 50 49 49 45 43 42 41 43 44 43 44 43 42 40 39 38 37 36 35 33 33 32 32 31 30 29 28 27 26 24 24 22 22

GFSSGP_sfc_temp_003.txt.gz
Temp
66 66 63 63 54 48 43 49 50 53 53 56 59 58 58 56 58 50 58 62 63 65 66 69 74 75 75 75 75 75 76 76 76 76 76 76 76 75 74 74 75 75 75 74 74 73 72 72 72
65 69 63 55 47 40 45 48 54 56 56 56 57 56 55 58 56 55 57 62 63 64 65 66 72 74 75 75 75 75 75 76 75 75 74 74 74 73 73 73 73 74 74 73 73 71 71 70 71
66 67 59 51 42 42 45 52 55 55 55 55 54 57 56 59 55 56 59 61 62 62 63 65 71 74 74 74 74 74 75 76 75 74 73 74 73 72 71 71 71 72 71 71 71 70 69 69 69
64 62 56 49 44 50 52 57 55 53 55 59 56 56 56 59 60 59 60 60 59 59 61 66 71 73 73 73 74 74 74 74 73 73 73 72 71 71 70 70 70 70 70 70 69 69 69 69 69
59 55 48 42 46 52 54 57 55 55 52 54 56 56 55 57 56 58 59 60 59 58 60 63 70 72 72 73 73 73 73 73 72 72 71 71 70 69 69 69 69 69 69 68 68 68 68 68 68
55 53 44 41 45 53 56 57 56 54 53 53 52 51 57 52 55 55 57 57 58 58 59 61 66 69 70 72 72 72 72 72 72 71 70 70 69 68 68 68 68 68 68 68 68 67 67 66 66
53 49 43 41 46 50 56 56 53 54 52 57 55 52 56 51 55 54 54 54 55 56 57 58 60 63 67 69 69 70 71 71 70 70 69 68 67 67 67 67 68 68 68 68 67 66 65 65 65
53 51 42 43 46 51 55 55 56 57 59 55 60 56 56 54 54 53 53 53 53 54 55 55 56 57 58 59 65 67 68 68 68 68 67 65 64 64 65 64 67 67 67 66 65 64 63 63 63
54 47 42 47 48 53 55 54 56 56 54 55 59 55 54 51 52 51 48 49 50 53 53 52 53 53 54 55 58 63 65 66 65 64 62 59 50 52 53 60 65 65 65 65 63 62 61 58 59
53 44 49 53 52 52 56 56 56 53 54 53 56 55 50 51 51 51 49 50 49 51 52 52 51 51 51 56 53 53 55 54 53 52 51 48 47 48 52 56 61 62 62 62 61 59 56 51 46
51 49 52 58 58 58 56 54 58 52 54 56 59 61 52 49 50 53 53 54 53 55 53 52 51 49 49 51 49 48 48 47 47 48 47 46 47 46 45 44 44 44 49 44 47 45 45 45 45
49 55 56 58 59 56 55 56 55 55 66 62 62 59 52 49 51 53 53 54 53 51 53 52 51 49 47 47 48 46 47 45 44 45 46 44 43 43 42 42 42 42 41 42 41 41 43 43 45
51 54 58 58 57 56 57 56 55 56 63 60 60 58 55 52 54 55 56 55 53 52 53 52 51 51 50 47 45 45 45 46 44 44 45 44 43 41 41 41 40 40 40 41 40 41 42 42 43
53 55 56 56 56 57 57 60 55 62 58 60 57 57 55 53 54 52 50 54 53 55 53 53 51 52 50 49 47 48 46 44 43 43 43 44 42 41 41 40 40 39 40 40 40 40 40 40 41
53 52 52 52 53 55 54 52 50 64 56 59 56 56 56 54 54 54 58 57 57 56 54 51 52 52 50 50 48 47 46 45 44 43 43 43 43 41 40 39 38 39 39 39 39 39 39 39 41
48 45 43 52 51 53 55 48 64 59 54 57 58 56 55 57 57 59 61 59 58 56 53 53 55 52 51 51 49 48 46 45 44 42 41 42 42 42 39 38 38 38 38 38 38 38 38 38 37
40 39 40 46 54 53 51 47 58 55 54 55 56 57 59 60 58 57 61 60 57 56 55 52 52 51 51 50 49 47 45 45 44 41 41 41 42 41 40 38 37 37 37 37 38 36 37 36 37
39 36 40 41 53 45 44 46 54 59 52 54 57 59 62 63 65 68 59 58 57 55 55 54 52 52 50 48 45 41 42 40 40 42 42 41 42 40 39 37 37 37 36 35 36 36 34 35 34
42 41 40 46 52 44 46 50 53 59 58 60 60 57 61 62 68 69 57 54 53 51 52 52 50 50 49 45 43 43 44 42 40 40 42 42 40 39 38 36 36 35 35 35 36 35 35 33 33
43 43 44 51 54 45 48 49 53 53 58 61 64 64 65 65 65 65 54 51 50 53 52 51 50 49 50 49 50 44 47 39 42 39 39 40 39 38 37 37 35 35 34 34 35 35 32 32 32
43 42 46 45 46 44 42 46 49 50 51 58 61 63 63 62 62 65 53 50 48 48 49 50 50 48 50 50 45 37 37 35 35 35 37 38 38 37 37 36 35 34 34 33 33 33 34 32 31
45 47 47 43 37 37 40 38 43 52 55 56 57 59 57 60 61 60 53 49 48 51 49 49 49 47 50 49 46 45 44 43 41 44 41 37 37 37 36 35 35 34 33 32 32 33 32 32 31
46 47 43 38 35 33 34 31 39 46 48 50 54 56 59 61 59 60 51 52 50 46 45 46 47 47 49 48 48 46 46 46 37 35 35 36 35 36 35 35 33 33 32 32 33 31 31 31 31
45 42 38 33 35 29 37 37 46 42 48 48 53 57 58 58 60 54 52 49 44 41 42 44 45 46 47 47 47 46 46 39 38 37 37 36 36 35 34 34 33 32 31 32 32 31 31 31 30
42 37 28 25 22 28 37 33 50 50 52 53 59 54 55 54 53 59 51 48 43 40 41 43 44 44 44 45 45 45 45 42 41 38 39 36 35 35 34 34 32 33 32 31 31 31 30 30 29
39 40 29 21 25 36 30 30 48 53 54 51 51 52 51 53 55 49 51 46 42 42 41 43 43 43 43 44 45 45 44 44 42 40 40 38 38 38 36 34 33 31 31 31 30 30 30 29 30
38 35 44 33 27 27 39 42 51 49 50 48 50 48 51 51 52 48 48 44 42 40 40 42 42 43 43 43 44 43 43 43 42 38 38 38 38 37 33 34 32 31 31 31 30 31 29 29 29
44 44 32 30 22 23 33 39 43 50 55 49 48 48 51 53 52 48 46 45 42 41 41 41 41 42 41 41 43 43 43 43 41 37 37 37 36 34 33 33 32 31 31 30 30 29 28 28 28
35 35 37 38 32 31 30 37 55 54 48 46 49 52 52 51 53 51 49 47 45 42 42 43 42 41 40 40 42 42 41 42 41 37 37 37 35 33 33 33 32 31 30 30 29 28 28 27 26
42 40 39 32 33 34 37 39 56 58 49 49 52 56 55 53 57 53 51 47 47 45 43 42 44 42 43 43 43 41 41 39 39 38 36 36 34 33 33 32 32 32 31 30 29 27 27 25 25

GFSSGP_sfc_temp_006.txt.gz
Temp
65 65 62 62 53 47 42 48 48 51 51 54 58 56 56 55 57 51 57 60 62 64 65 69 74 76 76 76 76 75 76 76 77 77 76 76 75 74 75 74 75 75 75 74 74 73 73 71 72
63 66 62 54 46 39 43 46 52 54 54 54 55 55 53 58 56 57 55 61 62 64 65 67 72 75 75 75 75 75 76 76 76 75 75 75 74 74 74 74 74 75 74 74 72 72 71 71 71
65 64 59 49 41 40 44 50 52 54 54 54 53 54 55 58 55 56 59 61 61 62 64 66 71 74 74 75 75 75 75 76 75 75 75 74 74 74 72 72 72 73 72 72 71 71 70 70 70
63 61 55 48 43 48 50 54 52 52 53 55 54 55 57 59 59 59 59 60 60 60 62 67 71 74 74 74 74 74 75 76 75 74 74 74 73 72 71 71 71 71 71 71 70 70 70 70 69
58 54 47 41 43 50 51 54 54 52 51 52 54 55 55 56 55 56 57 60 59 58 60 63 70 72 74 74 74 74 74 75 74 74 73 73 71 71 70 70 70 70 70 69 69 69 69 68 67
55 52 43 39 43 51 53 54 52 51 51 51 51 50 56 52 53 54 56 56 58 58 59 61 67 70 71 73 73 73 73 74 73 73 72 71 70 70 69 69 69 69 69 69 68 68 67 67 66
52 48 41 38 43 49 53 52 50 51 50 56 53 50 57 53 55 54 54 54 56 57 57 59 61 65 67 69 70 71 72 72 72 71 71 70 69 69 68 68 69 69 69 68 67 66 66 66 65
52 50 40 40 43 49 53 51 54 55 57 53 56 55 56 52 52 51 52 52 54 55 56 56 57 59 60 61 66 67 69 70 70 69 68 66 66 67 66 66 68 68 68 66 65 65 65 64 63
52 46 40 45 45 51 53 51 54 54 52 52 58 55 55 49 50 50 48 49 50 53 53 54 55 55 56 57 59 64 66 66 66 65 63 58 52 53 55 59 66 67 66 65 64 63 61 60 60
51 43 47 51 49 52 54 54 56 52 54 52 55 57 50 48 48 49 48 51 50 51 53 53 52 53 53 56 55 56 57 56 55 53 52 49 48 48 52 57 63 64 64 64 63 61 58 51 45
49 48 50 55 56 55 54 52 55 52 54 55 58 60 53 49 48 49 51 53 54 55 53 53 52 51 51 52 51 51 50 50 49 49 48 46 46 46 46 46 45 45 50 45 48 45 44 44 44
47 53 54 55 57 53 54 55 54 55 65 63 61 60 53 51 49 50 51 52 52 51 53 53 51 50 49 49 50 49 49 47 46 46 46 44 42 42 42 42 41 41 41 41 41 41 42 43 44
48 51 55 56 53 55 54 56 54 53 62 59 59 57 56 53 51 53 54 54 52 50 53 51 51 51 51 48 47 47 47 48 46 45 44 43 42 41 41 40 40 40 40 40 40 40 41 42 43
51 52 53 53 55 54 55 59 54 59 55 60 55 57 55 53 55 50 49 53 51 55 53 52 51 52 51 51 48 49 48 45 44 43 44 43 42 41 40 39 39 39 39 39 39 40 40 40 41
51 50 50 50 52 51 51 50 48 61 52 58 57 55 55 54 53 54 59 56 56 56 54 51 52 52 51 51 49 49 47 45 44 44 42 42 42 41 40 39 38 38 38 39 38 38 38 39 40
46 42 42 49 47 50 53 45 60 59 52 55 56 56 56 58 56 57 58 58 57 56 53 53 54 51 51 52 50 49 46 46 46 43 43 42 42 41 39 38 38 37 37 37 37 37 37 37 38
39 38 39 44 52 50 48 45 56 54 52 54 55 57 57 63 63 60 58 59 56 56 55 52 52 51 50 51 49 48 46 46 45 42 43 42 42 41 40 38 37 37 36 36 38 35 37 36 37
38 35 38 39 50 45 43 45 54 56 53 53 55 60 62 62 65 69 61 55 55 54 55 54 51 52 50 49 45 41 40 42 39 43 42 41 42 40 39 37 37 36 35 35 35 35 34 35 35
40 39 39 44 51 43 50 51 54 56 52 57 60 60 60 63 66 66 60 56 52 48 49 51 49 50 49 46 43 42 44 42 41 42 43 43 41 40 40 37 36 35 35 35 36 34 35 33 33
41 41 43 48 50 43 45 47 53 55 57 58 60 62 62 62 63 64 56 51 49 50 49 49 49 48 49 49 49 44 48 42 45 41 40 42 39 39 40 38 37 36 34 34 34 34 32 32 31
39 38 43 42 43 42 40 43 43 50 50 56 57 60 56 57 61 64 54 51 49 46 46 49 49 48 50 48 45 36 37 35 35 34 37 38 40 39 39 38 37 36 36 35 34 33 34 33 31
42 46 45 42 37 35 39 35 41 48 51 52 56 53 54 55 55 55 53 50 50 50 46 47 46 46 48 47 45 45 44 43 43 45 44 40 40 39 38 38 37 36 34 33 33 34 33 33 32
43 45 42 37 35 31 32 31 38 42 45 51 53 54 53 54 53 54 54 53 51 48 44 44 45 45 47 47 46 46 47 47 38 38 39 38 37 38 37 37 35 35 35 33 34 32 32 32 32
43 40 37 33 33 27 36 35 45 40 44 47 54 63 55 55 54 53 52 49 48 43 40 40 42 43 44 45 45 46 46 37 38 35 37 36 36 35 35 35 36 35 34 33 33 32 32 31 31
40 36 27 24 21 27 33 31 46 50 55 52 53 53 53 52 50 50 49 47 46 41 39 39 39 39 41 43 43 44 44 39 42 38 40 36 36 36 36 36 35 34 35 33 32 32 31 31 30
37 40 28 23 21 34 28 30 46 51 53 53 50 50 48 50 50 49 48 44 43 41 38 40 39 39 39 40 41 40 41 41 42 39 40 38 39 39 36 35 34 34 33 32 32 31 30 29 30
36 35 42 33 33 26 38 40 49 52 47 46 45 46 47 50 50 51 49 45 42 40 39 39 39 39 39 38 39 39 39 40 40 37 37 38 39 38 34 35 34 32 33 32 31 32 30 30 30
42 42 32 30 24 21 31 36 39 49 54 50 48 47 46 48 50 50 51 48 43 40 39 39 39 39 38 39 41 41 41 42 40 37 37 36 37 35 33 34 34 32 33 32 31 30 29 29 29
36 35 35 36 33 29 27 36 49 53 55 47 45 48 48 44 42 43 44 45 45 43 41 39 38 38 37 37 39 37 36 38 37 36 37 37 35 34 33 35 34 33 32 32 31 31 29 29 28
41 42 41 33 31 33 34 34 52 52 55 44 37 37 38 39 40 41 41 41 42 43 44 44 41 39 39 38 38 36 37 35 35 36 36 36 34 34 34 34 33 33 33 32 32 30 29 28 27

GFSSGP_sfc_temp_009.txt.gz
Temp
70 67 67 66 58 53 50 54 58 59 62 64 63 63 63 65 63 61 65 66 67 69 70 74 75 76 76 76 76 75 76 76 77 77 77 76 76 76 76 75 75 76 75 75 74 73 73 72 72
68 70 66 59 52 47 50 55 56 60 64 63 63 63 64 65 66 67 66 66 67 70 70 72 73 75 76 75 75 75 76 76 77 77 77 76 76 75 76 76 76 75 75 75 73 72 72 71 71
69 67 62 54 47 47 50 56 60 62 62 63 63 65 66 67 67 67 67 66 66 68 69 71 72 75 75 75 75 75 75 76 76 76 76 76 76 76 74 74 74 74 74 73 72 71 71 71 70
66 64 59 53 48 52 55 60 60 61 62 61 63 63 66 69 69 67 66 65 65 66 68 70 72 74 75 75 75 75 76 76 76 76 75 74 74 73 72 72 73 72 72 72 71 71 71 70 69
60 58 51 47 48 53 55 58 60 60 61 62 62 63 63 67 63 64 64 64 65 65 67 69 71 73 74 74 75 75 75 76 76 75 74 74 73 72 71 71 71 71 70 70 70 70 69 68 68
57 55 48 46 48 54 56 59 60 59 61 61 60 61 64 65 63 64 62 63 65 65 64 67 68 70 72 74 74 74 74 75 75 74 74 73 72 71 71 71 70 70 70 70 69 68 68 67 66
55 51 47 46 48 51 58 59 59 60 60 62 63 62 66 65 64 60 60 61 63 63 63 65 67 69 68 72 71 72 73 73 73 73 73 71 70 70 70 69 70 70 70 69 68 67 67 66 65
54 53 47 46 48 52 59 58 60 61 64 61 64 62 65 67 57 56 58 59 60 61 62 63 65 66 68 69 66 68 69 71 71 70 69 67 67 68 67 67 69 69 69 68 67 66 66 65 64
57 49 44 49 48 55 58 57 60 61 62 60 62 63 66 55 54 56 56 56 57 58 59 61 62 64 65 65 65 65 66 67 67 67 64 63 64 65 65 63 67 68 67 66 66 65 63 62 61
54 46 50 54 53 56 58 58 60 60 61 59 61 63 59 54 54 56 55 57 56 57 59 59 60 61 61 62 64 65 65 67 66 64 62 60 60 60 60 60 64 66 65 65 64 62 58 55 57
52 50 53 56 57 57 56 56 60 58 56 60 61 65 61 55 53 55 57 59 60 61 59 58 58 59 60 61 61 61 62 62 61 60 58 57 56 57 58 58 58 58 56 58 58 55 55 54 55
50 54 54 57 57 55 56 56 56 58 67 66 63 64 62 57 55 55 56 58 58 57 59 59 58 57 58 59 59 60 59 58 58 57 55 54 53 54 54 55 54 54 53 52 52 52 52 52 52
50 52 56 55 55 55 55 56 55 56 63 62 61 59 60 59 58 56 58 59 58 56 58 58 57 58 57 56 57 57 58 57 57 55 53 53 52 52 52 52 51 52 51 52 51 51 51 51 51
52 53 53 53 56 54 55 59 55 59 60 62 58 61 59 57 60 56 54 57 55 58 58 58 56 58 58 57 56 57 57 57 54 54 54 52 52 52 51 50 50 50 50 50 51 51 51 51 51
52 51 52 51 53 52 52 51 50 62 55 59 62 60 59 58 58 58 63 59 59 58 60 56 57 57 56 57 56 57 56 53 54 53 52 51 51 51 50 49 48 49 48 48 48 48 49 50 50
47 45 44 52 49 51 54 49 59 60 56 58 59 62 59 63 62 61 62 61 60 60 57 57 57 56 56 57 57 56 55 54 54 53 52 50 50 50 49 48 48 47 47 48 48 48 48 49 50
41 39 40 45 52 51 50 47 55 55 54 55 59 62 65 66 68 68 62 61 61 59 58 56 56 55 55 56 57 56 53 54 54 52 51 50 49 49 49 48 47 46 46 46 47 46 48 48 48
40 37 38 41 53 46 46 45 54 56 56 59 61 62 61 62 65 69 64 61 59 57 58 57 54 56 54 55 54 53 50 53 51 51 50 49 50 47 48 47 45 45 45 45 45 45 44 47 47
42 40 39 46 51 45 50 50 52 56 55 57 60 62 63 63 67 65 61 60 58 54 53 53 52 53 52 51 48 47 47 50 47 49 49 50 50 47 47 46 45 44 45 45 45 44 44 44 44
42 40 41 46 49 43 45 48 54 56 58 59 60 61 59 59 63 64 59 58 57 56 52 51 51 51 52 52 52 52 52 50 50 48 48 50 48 47 47 46 44 44 43 43 43 43 42 43 42
39 39 43 41 42 43 40 42 44 53 51 53 57 57 56 56 57 59 59 57 55 54 51 50 51 51 52 52 50 42 43 42 43 43 44 46 46 45 46 45 45 43 45 43 43 43 43 43 41
39 45 43 40 38 34 43 35 41 51 52 53 53 54 54 55 57 56 53 55 54 53 51 49 50 49 51 50 48 49 49 46 46 48 48 46 46 45 45 44 44 43 43 43 42 43 44 43 42
43 43 41 39 36 34 34 31 40 44 47 50 54 56 55 55 53 56 54 53 53 48 47 47 47 47 50 49 49 49 49 50 46 47 46 44 43 44 42 43 43 42 42 43 42 41 42 43 43
43 41 37 34 35 29 37 36 39 42 48 48 52 57 54 54 54 57 52 49 48 46 43 43 44 44 46 47 47 48 48 45 44 43 43 42 41 41 41 42 42 42 42 41 41 42 42 42 42
41 38 29 26 23 28 34 32 43 49 54 52 56 54 51 51 52 51 49 47 46 45 42 43 42 42 43 44 45 46 46 43 46 44 45 41 39 40 40 41 41 41 41 41 41 40 41 40 41
37 39 32 24 24 34 27 32 46 48 52 52 50 49 48 48 48 45 45 45 44 44 42 42 41 41 42 42 42 43 44 44 45 43 43 42 42 42 42 41 42 41 39 40 40 40 41 40 41
36 35 42 33 29 28 37 40 51 51 49 48 43 40 38 40 40 41 42 43 43 43 43 42 41 41 42 41 41 41 41 41 42 41 41 42 43 42 42 40 39 39 38 38 38 38 37 38 39
42 44 33 30 23 25 33 37 40 46 40 36 36 36 37 39 39 41 42 42 43 44 44 45 44 42 42 41 41 41 41 41 41 39 39 39 40 39 38 38 39 38 38 38 38 38 37 36 37
36 35 36 37 33 29 27 34 45 35 34 32 34 36 37 38 39 40 41 42 43 43 43 43 44 43 42 43 42 39 39 40 40 38 38 39 38 37 37 37 37 37 37 37 37 38 36 35 35
38 39 40 31 29 32 33 32 47 33 33 34 34 36 37 38 39 40 41 41 41 41 41 41 42 41 41 41 41 41 39 38 38 39 38 38 37 37 37 37 37 37 37 36 36 35 34 35 33

GFSSGP_sfc_temp_012.txt.gz
Temp
79 82 87 84 71 69 65 66 71 70 71 75 75 74 74 75 74 70 77 79 77 81 82 79 75 77 77 76 76 76 76 77 77 77 77 77 77 76 76 76 76 76 76 76 74 74 73 72 72
84 82 85 80 67 63 68 70 67 72 74 74 73 73 73 75 80 81 79 78 78 82 81 81 73 76 76 76 75 75 76 76 77 77 77 76 76 77 76 76 75 75 76 75 73 72 72 71 71
81 81 79 73 67 64 66 70 73 73 74 74 73 75 76 77 80 80 79 79 78 81 81 81 73 75 76 75 75 75 76 76 77 77 77 77 77 76 75 74 74 75 74 73 72 72 71 71 70
83 83 78 67 63 68 68 75 74 74 72 72 74 73 79 82 80 80 77 79 78 80 80 75 73 75 75 75 75 75 76 76 77 76 77 76 74 74 73 73 73 73 73 72 72 71 71 70 69
83 79 69 63 63 67 72 73 72 72 73 74 73 74 76 79 78 77 77 77 78 79 79 78 72 74 74 75 75 75 76 76 76 76 76 75 74 73 72 72 72 72 71 71 71 70 69 68 68
76 75 65 63 65 68 72 73 71 72 74 73 71 73 78 79 76 79 77 78 80 78 77 77 70 71 72 73 74 74 75 75 75 75 74 75 74 72 71 71 71 71 71 71 70 69 68 67 67
72 70 65 63 64 66 70 71 72 74 74 75 76 73 81 81 77 75 76 78 77 79 75 76 77 74 68 70 71 72 73 74 74 73 74 73 72 71 71 70 70 70 70 70 69 68 67 67 65
76 73 61 64 65 65 72 71 74 74 76 74 77 75 78 81 71 72 72 74 75 75 74 75 76 77 77 77 68 68 70 71 71 71 71 69 68 68 68 67 69 70 70 69 68 67 67 66 64
72 67 63 64 62 70 73 71 72 76 75 74 76 79 85 71 69 70 70 70 71 72 73 75 75 76 77 78 74 67 67 68 68 68 65 65 73 72 70 68 68 69 68 68 67 66 64 63 61
70 64 66 71 72 71 73 71 73 71 75 76 75 81 79 71 71 73 73 74 71 71 72 73 74 74 75 75 75 75 75 75 75 74 73 73 73 72 71 65 64 67 66 66 66 63 60 60 68
66 66 71 70 72 71 70 70 72 72 70 76 76 82 83 75 74 72 75 77 77 77 75 72 73 74 74 74 74 75 76 75 75 74 73 72 70 68 68 69 69 69 63 68 66 62 65 64 67
62 68 69 70 68 67 67 71 68 71 75 82 82 81 79 78 76 75 75 76 76 76 76 74 72 72 72 74 73 74 74 74 72 72 70 68 68 67 67 68 68 66 67 65 63 63 62 62 62
61 67 68 69 66 67 69 66 68 70 77 80 80 75 73 76 77 78 77 76 75 74 75 74 72 72 72 71 72 73 72 71 72 70 68 68 67 65 66 66 66 66 65 64 62 62 61 60 61
66 64 66 67 66 67 63 69 67 74 78 76 78 77 80 78 76 77 75 73 72 72 74 75 72 71 72 70 70 71 71 71 71 69 67 66 67 65 65 64 64 64 63 64 63 62 61 61 60
64 61 67 69 66 64 64 61 62 76 74 72 77 80 80 79 80 76 79 77 75 74 74 73 72 71 70 70 70 70 70 69 69 68 67 64 65 65 64 63 62 62 62 60 60 60 61 61 60
60 59 57 69 61 63 64 59 72 76 71 72 75 78 79 80 82 83 82 78 79 77 73 72 70 69 69 70 70 69 70 68 67 67 66 64 63 64 63 62 61 61 60 60 60 59 59 60 60
59 55 57 59 65 60 60 60 70 73 70 70 73 75 77 77 79 81 82 81 78 78 76 72 70 68 67 68 69 69 68 67 67 67 66 63 62 62 63 62 61 59 59 59 59 59 60 58 58
57 56 56 54 65 63 59 58 64 68 67 67 70 73 74 75 77 79 78 77 77 76 75 73 70 67 67 67 66 67 66 65 66 66 65 63 62 60 61 60 59 57 57 57 57 57 58 59 58
58 55 54 60 64 58 58 59 63 67 68 67 69 71 73 74 76 77 75 74 72 72 70 69 68 66 66 63 62 63 61 62 62 63 62 63 61 59 59 60 58 56 55 56 56 56 53 53 56
55 52 53 59 61 54 58 56 62 65 65 68 69 70 71 72 72 72 70 69 67 67 68 67 65 65 64 64 64 64 63 63 63 61 60 61 60 59 58 58 57 55 55 55 54 53 53 55 54
54 51 54 53 56 58 54 56 58 67 64 68 67 69 69 67 66 66 64 62 60 59 59 61 63 63 63 63 63 61 60 60 59 58 58 58 60 58 56 57 56 55 56 54 53 54 53 52 52
49 58 54 50 49 47 54 44 58 63 64 64 67 68 68 65 64 60 58 56 56 54 56 57 58 60 60 61 60 57 57 55 57 57 57 56 57 58 56 56 56 54 54 55 53 54 55 56 51
54 52 50 48 48 45 51 45 57 58 58 63 67 64 61 60 57 54 53 53 54 53 52 54 56 56 57 58 58 57 56 59 60 58 57 55 55 55 54 55 55 53 53 54 53 52 53 55 55
51 51 49 47 47 40 51 48 53 57 58 61 59 54 53 52 53 53 53 53 52 52 52 52 53 53 54 55 56 55 55 56 55 54 54 55 54 53 53 52 52 53 52 52 52 51 52 52 54
50 48 42 40 40 39 48 44 53 62 60 55 52 49 49 50 50 50 49 50 50 50 50 51 51 50 51 52 53 53 54 54 54 55 54 53 52 51 50 50 51 51 51 52 51 50 50 51 52
48 49 42 31 34 41 38 41 52 59 52 49 49 48 49 49 49 49 49 49 49 49 49 50 50 48 49 50 49 51 51 52 54 54 54 53 53 52 52 50 51 51 51 50 51 49 49 49 50
47 43 51 40 40 35 45 52 60 57 46 46 46 46 45 45 47 47 48 49 48 48 48 49 49 48 48 49 49 49 50 49 50 51 51 52 52 52 51 50 48 50 50 49 49 48 46 47 48
49 53 40 40 29 27 39 44 47 47 44 43 42 42 44 44 44 45 47 47 47 48 48 48 49 47 47 47 48 48 48 47 48 49 47 47 49 48 47 48 47 49 48 47 47 47 47 46 47
46 42 43 43 39 30 29 39 51 48 41 40 40 40 41 42 43 44 47 47 47 47 47 47 47 45 44 45 46 46 46 46 46 45 47 47 47 46 45 46 45 46 46 46 46 46 46 43 44
47 45 47 36 32 38 36 37 43 40 40 38 37 38 40 42 44 45 45 46 46 45 45 45 45 44 43 43 43 43 44 44 44 45 45 45 45 46 44 45 44 43 43 44 43 43 43 41 42

GFSSGP_sfc_temp_015.txt.gz
Temp
82 90 92 86 72 72 69 70 77 74 76 80 80 78 76 79 76 69 83 86 84 87 86 78 75 77 77 76 76 76 76 77 77 77 77 77 77 76 76 76 76 76 76 75 75 74 73 72 72
91 90 88 83 69 66 69 75 72 76 79 80 79 78 78 77 86 86 84 84 84 86 86 82 73 76 76 76 76 76 76 77 77 77 77 77 77 77 77 76 75 76 75 74 74 73 72 71 71
87 89 81 75 70 66 67 74 76 79 81 78 77 81 80 80 86 86 84 85 84 86 86 83 74 75 76 75 75 75 76 76 77 77 77 77 76 76 76 74 75 75 74 73 73 72 71 71 70
87 86 83 70 67 72 72 78 80 79 79 78 79 76 84 89 86 87 84 85 84 85 85 75 74 75 76 75 75 76 76 76 77 77 77 77 76 75 74 74 74 73 73 72 72 72 71 70 69
87 83 71 67 69 73 78 80 79 76 78 79 78 78 80 86 87 84 84 84 83 85 84 80 73 74 75 75 75 75 76 76 76 76 77 77 76 75 73 73 73 73 72 72 72 71 70 69 68
79 80 68 67 71 75 78 79 78 78 79 80 76 78 82 86 84 85 84 84 85 84 82 82 71 71 73 74 74 75 75 75 76 76 76 76 76 75 73 72 72 72 71 71 71 69 69 68 67
74 72 68 69 70 72 75 79 77 78 79 80 82 76 85 85 85 83 83 85 84 85 81 80 78 74 68 70 71 73 74 74 74 74 74 73 74 73 71 71 71 71 71 71 70 69 68 67 66
79 75 68 71 70 69 77 77 80 78 78 81 83 77 80 83 80 80 81 82 83 82 80 80 80 79 77 77 67 69 70 71 72 71 70 69 70 70 69 68 70 71 71 70 69 68 67 66 64
79 69 66 69 70 73 78 74 79 83 78 82 82 81 87 81 78 78 78 78 79 79 79 79 79 80 79 79 76 66 67 68 68 69 66 66 74 72 70 68 68 70 69 69 68 67 66 63 61
72 68 70 77 78 75 78 77 77 76 78 80 83 88 89 88 80 78 79 79 77 77 78 79 79 79 79 80 79 76 77 72 72 73 74 72 74 74 72 67 65 67 67 67 67 66 62 61 67
74 67 76 77 78 78 75 74 79 74 72 80 81 85 88 87 85 81 80 82 82 83 80 78 78 79 78 78 79 78 77 74 72 74 75 73 74 73 71 70 68 68 63 67 66 62 64 67 68
65 73 74 75 76 71 71 77 74 74 76 82 84 85 84 82 82 83 82 83 83 83 84 81 78 78 78 78 77 77 77 76 75 75 75 73 72 70 69 69 69 68 67 67 65 64 65 64 65
66 70 74 75 74 71 72 70 72 73 81 84 84 83 82 82 81 84 84 84 82 81 83 83 80 77 77 76 77 76 76 76 76 76 75 73 70 68 69 69 69 69 68 67 64 63 62 62 63
72 68 70 72 72 72 68 70 73 76 83 82 81 82 84 85 85 84 83 82 81 80 81 82 81 78 78 76 75 75 76 76 75 74 73 71 70 68 68 67 67 67 67 66 64 63 62 62 62
68 63 69 72 74 71 69 64 67 79 81 78 78 82 83 84 86 85 86 84 84 82 81 79 80 79 76 76 75 75 75 75 73 73 72 70 70 69 68 66 66 66 65 64 63 63 63 62 61
63 66 58 71 68 68 66 60 73 78 77 75 77 79 80 82 84 86 86 84 86 83 82 80 78 77 76 75 75 75 75 74 73 72 72 69 68 69 67 65 64 65 63 62 61 61 60 61 60
65 56 60 63 73 67 63 60 70 75 73 72 75 77 78 79 82 83 82 81 80 82 81 80 78 75 74 73 74 74 73 72 72 72 71 69 67 67 66 65 64 64 61 60 61 60 60 59 60
59 60 62 61 69 66 64 63 69 73 73 73 75 77 78 78 77 75 74 73 74 75 76 76 76 75 73 72 71 72 71 71 72 71 70 69 67 65 65 64 63 61 59 59 59 58 60 59 58
63 60 58 63 68 64 61 62 66 71 72 73 76 77 77 75 74 71 68 66 66 65 65 68 70 72 71 69 66 66 66 67 68 68 68 68 67 64 63 62 62 59 57 57 58 58 56 56 57
60 56 56 63 67 59 60 59 64 69 70 74 72 73 71 70 67 64 63 61 60 59 60 62 64 68 69 68 67 67 67 68 68 66 66 66 65 63 62 61 60 58 57 57 56 55 53 55 55
58 55 56 55 60 62 59 57 64 69 73 75 72 71 67 62 60 59 58 58 57 56 57 58 60 63 65 66 66 65 65 61 62 63 64 63 64 63 59 60 60 57 57 55 55 55 53 51 52
52 63 58 55 51 48 58 44 57 66 68 66 65 63 60 58 58 57 55 55 54 55 56 58 58 59 60 62 63 61 59 57 60 61 62 61 61 61 60 58 59 57 56 56 53 55 54 53 48
56 57 56 54 50 50 53 50 57 66 62 65 61 58 57 57 55 54 54 54 55 54 54 56 56 56 57 58 59 58 57 59 61 61 59 60 59 58 59 57 57 56 55 55 54 53 53 55 52
56 54 55 54 50 41 53 52 54 59 60 56 55 55 55 55 55 55 55 55 54 54 54 54 54 54 55 55 55 55 54 55 56 58 56 57 58 57 56 55 54 55 55 54 54 52 52 53 54
52 50 41 41 41 40 56 48 54 63 65 61 54 52 53 54 53 53 52 52 51 51 52 52 52 51 53 53 52 52 52 53 54 55 55 55 55 55 54 54 52 53 53 54 54 51 50 51 51
53 52 41 31 35 42 48 41 51 57 55 54 54 52 52 51 52 51 51 51 51 50 50 51 50 49 50 50 50 51 50 51 51 52 52 53 54 55 55 53 53 52 52 52 53 50 49 50 50
51 45 51 38 37 35 44 52 60 58 51 51 49 49 47 48 49 50 50 50 50 49 49 49 48 48 48 49 49 49 49 49 48 48 49 49 49 51 51 52 51 50 50 50 50 48 47 48 48
51 55 36 39 27 28 40 44 47 56 52 47 46 45 46 47 47 48 49 49 49 49 49 49 48 46 46 46 47 47 46 47 48 48 46 46 47 47 47 47 48 47 47 47 47 46 46 46 46
48 44 46 45 40 30 29 39 52 49 49 45 44 44 44 45 46 47 47 48 48 48 47 47 47 45 44 45 45 44 44 44 45 44 44 44 44 45 44 44 44 44 44 45 45 45 44 44 44
50 45 46 33 31 37 35 35 55 47 45 43 41 42 43 43 44 45 46 47 47 46 46 45 46 44 43 44 43 42 43 41 41 41 41 41 41 42 43 44 42 42 43 44 43 42 41 43 42

GFSSGP_sfc_temp_021.txt.gz
Temp
69 72 66 68 56 52 48 54 56 61 59 63 66 63 60 61 64 55 67 73 72 72 74 74 75 77 77 76 76 76 76 77 77 77 77 77 76 76 76 76 76 76 77 76 75 74 73 72 72
68 76 68 59 51 45 49 55 58 62 64 64 65 63 60 62 68 67 67 73 74 73 73 74 74 76 76 76 76 76 76 77 77 77 77 77 76 76 77 76 75 76 75 75 74 73 72 72 71
72 74 61 54 49 47 49 55 56 63 65 63 61 65 62 64 68 68 69 73 74 71 73 74 73 75 76 76 76 76 76 76 77 77 77 77 76 76 75 75 75 75 75 74 74 73 72 71 71
69 66 61 53 48 53 55 56 60 61 63 65 63 60 65 67 69 70 73 73 72 70 73 72 73 75 75 75 76 76 76 76 77 77 77 77 77 76 76 75 75 74 74 74 73 72 71 70 70
66 59 51 48 52 57 58 61 62 60 60 62 64 61 63 67 68 70 70 72 70 70 71 71 73 74 75 75 75 75 75 76 76 76 76 76 76 76 75 75 75 73 73 73 73 71 70 69 69
59 58 48 45 51 59 58 63 61 61 62 61 59 58 60 65 65 67 69 69 71 70 69 71 70 71 73 74 74 74 75 75 75 76 76 76 75 75 74 73 73 74 73 72 71 70 69 68 67
56 52 46 47 52 56 60 62 58 58 61 61 63 56 60 62 66 68 67 67 69 70 68 69 70 70 69 71 71 72 73 74 74 74 75 74 74 74 73 72 73 73 72 72 70 69 68 67 66
59 55 48 48 52 54 61 62 64 60 62 65 64 57 57 65 68 68 67 66 66 68 67 67 68 69 68 72 68 69 70 71 72 71 70 69 70 70 70 69 70 72 71 71 69 68 68 67 65
61 50 46 51 55 55 62 61 64 65 61 62 67 64 68 64 65 61 59 63 63 66 66 65 66 67 68 67 68 66 67 68 68 68 67 65 65 65 65 64 68 70 70 70 69 68 67 65 63
55 47 52 58 55 55 60 57 58 61 61 60 62 66 65 64 60 62 60 61 61 62 64 65 64 66 66 70 68 66 67 67 67 66 67 67 63 62 63 62 65 67 67 69 68 67 64 59 52
56 51 57 63 62 61 60 60 60 58 55 62 62 64 67 65 64 63 61 62 62 63 63 64 65 64 65 68 65 66 67 65 65 68 67 66 66 63 59 57 58 58 60 58 61 58 53 52 51
52 61 61 62 64 61 57 60 59 58 63 66 65 66 64 67 67 65 63 64 63 64 65 64 65 64 64 66 64 65 66 64 63 66 67 66 65 61 56 55 54 54 53 53 51 50 50 50 52
55 57 62 62 62 60 62 59 57 59 66 65 66 67 65 65 65 66 65 66 65 64 65 63 63 66 66 63 62 62 64 64 65 62 64 66 66 62 55 54 54 53 52 51 49 49 49 50 52
56 56 58 60 61 60 59 57 57 62 61 64 65 63 63 64 61 59 60 59 60 62 63 64 63 66 64 64 62 61 61 62 61 62 62 62 62 62 58 54 54 53 52 50 49 48 47 48 49
57 53 56 58 58 58 59 53 56 63 62 62 61 60 63 58 57 54 56 55 55 57 59 60 63 62 62 62 61 61 61 61 60 61 62 62 60 59 56 54 53 54 52 50 48 48 47 46 48
52 48 44 57 57 56 56 48 59 64 60 62 61 58 55 54 54 54 54 54 54 54 55 57 61 61 61 60 60 61 60 60 60 60 60 62 61 60 55 53 52 51 50 49 48 46 45 45 45
45 41 44 51 58 55 52 47 59 63 58 60 56 54 53 52 52 52 52 52 52 52 53 54 56 56 59 60 59 59 60 59 59 59 58 61 60 59 59 53 51 51 49 47 49 44 45 42 43
42 41 46 45 54 52 47 49 54 59 59 58 51 49 50 49 49 50 50 51 51 51 52 53 55 55 55 55 55 55 56 56 57 57 58 61 60 58 57 53 51 49 47 46 45 45 43 43 43
46 44 43 48 56 49 51 49 54 58 57 56 49 49 48 48 50 50 49 49 49 49 49 50 51 52 53 51 51 52 52 53 54 58 60 60 59 58 55 53 51 48 48 47 46 44 44 42 41
47 44 43 49 54 50 50 49 54 56 56 54 50 47 47 47 47 48 47 46 46 47 47 48 49 50 51 51 50 50 49 49 51 55 57 59 58 57 55 53 51 47 45 45 44 44 41 42 42
45 43 44 45 48 48 44 42 49 54 51 51 49 48 47 45 45 45 45 44 45 44 44 47 48 48 48 49 51 49 49 48 48 49 53 54 56 56 54 53 51 49 49 46 46 44 44 41 40
42 49 48 46 40 36 44 32 44 48 45 46 45 43 43 44 45 45 44 44 44 43 44 45 46 47 48 47 46 44 43 42 44 45 46 48 50 52 54 53 52 49 48 47 43 45 44 41 39
46 48 45 44 39 35 38 32 40 44 41 42 41 43 42 42 43 43 43 44 43 42 41 42 45 45 45 45 44 43 41 42 42 44 44 45 46 47 48 48 51 49 47 46 45 45 41 41 41
49 45 43 40 37 27 37 36 37 42 44 41 42 42 42 42 42 42 43 43 42 41 40 41 42 43 44 43 43 42 40 40 40 40 40 41 43 43 44 45 44 46 47 46 45 45 45 45 41
45 39 30 26 24 27 38 34 40 44 46 45 41 39 40 40 40 40 40 39 40 39 39 42 40 39 40 41 40 40 40 39 39 39 38 37 38 40 40 40 40 40 42 42 41 40 39 41 44
42 43 30 22 23 26 36 30 40 41 42 42 42 40 40 39 40 40 39 38 39 39 38 38 37 37 38 38 38 38 38 38 39 38 37 37 37 37 38 38 38 39 39 40 40 38 37 37 39
42 38 42 33 24 23 32 38 40 41 39 40 39 39 38 39 39 39 40 38 38 38 38 37 36 36 36 37 36 35 35 35 35 34 34 35 35 39 37 37 36 36 37 37 37 36 35 35 36
44 46 33 31 18 18 28 31 34 36 36 37 36 36 37 39 39 40 39 39 39 38 38 38 38 36 36 36 36 36 35 35 34 34 32 32 33 34 33 35 35 35 35 35 34 33 34 34 34
40 36 38 38 32 23 19 28 39 38 37 35 36 38 37 38 38 38 38 38 38 38 39 38 37 37 37 38 37 37 36 35 34 32 32 31 31 31 33 33 32 32 33 34 33 33 33 33 34
42 39 39 28 26 27 29 31 40 38 38 39 37 39 38 38 38 40 40 38 38 39 39 38 38 36 37 38 36 35 36 35 32 32 32 31 30 30 30 31 31 31 32 32 32 32 33 33 33

GFSSGP_sfc_temp_024.txt.gz
Temp
67 68 64 65 56 50 45 51 53 56 56 60 63 61 58 58 61 53 65 69 70 70 73 74 75 77 77 76 76 76 76 77 77 77 77 77 76 76 76 76 76 76 77 76 75 74 73 72 72
66 73 65 56 49 44 47 52 55 57 61 61 62 61 58 58 64 63 64 71 70 71 73 73 73 76 76 75 75 75 76 76 77 77 77 76 76 76 76 76 76 76 76 75 74 73 72 72 71
70 70 60 52 45 45 48 53 54 59 61 60 59 62 59 61 63 65 68 70 69 69 72 73 73 75 76 75 75 75 75 76 77 77 77 77 76 76 76 75 75 75 75 74 74 73 72 71 71
67 64 58 51 46 51 55 56 57 58 60 62 60 57 62 65 67 68 70 69 67 68 71 71 73 75 75 75 75 75 76 76 76 77 77 76 76 75 75 74 74 74 74 74 73 72 71 70 70
62 57 49 46 48 54 54 58 59 58 57 59 60 58 59 65 65 65 66 68 66 67 68 70 73 74 75 75 75 75 76 76 76 76 76 76 76 76 76 75 74 73 73 73 72 71 70 69 69
58 54 46 44 49 56 56 58 59 57 57 60 58 57 60 63 62 65 66 65 67 66 68 70 69 71 73 74 74 75 75 75 76 76 76 76 75 75 75 74 74 74 73 72 72 70 69 68 68
54 49 45 43 47 52 58 60 56 56 55 58 61 55 59 62 67 65 64 64 66 66 67 68 70 70 69 70 71 72 73 74 74 74 74 74 73 73 73 72 73 74 73 72 71 69 68 67 67
55 52 44 44 49 51 60 62 60 58 58 63 63 56 56 62 65 62 60 62 62 65 66 67 67 69 70 70 68 69 70 71 71 71 70 69 70 70 70 68 70 73 72 71 70 68 68 67 66
57 48 44 47 50 52 59 58 62 60 58 59 64 60 63 62 62 58 58 61 60 64 63 65 66 67 68 68 67 66 67 68 68 68 66 65 65 66 65 64 68 71 70 71 69 68 67 65 63
53 45 50 55 53 52 58 55 57 58 58 56 57 63 62 58 58 61 59 60 59 61 62 62 64 66 66 69 67 66 69 69 69 68 66 65 66 63 63 62 65 67 67 69 69 68 65 58 50
52 49 54 58 58 57 58 58 56 53 55 60 60 61 63 59 61 60 59 59 60 59 60 62 64 65 65 67 66 65 65 64 64 64 64 64 65 63 62 58 59 59 60 58 61 59 52 50 49
50 58 58 61 59 57 55 58 58 55 61 63 62 61 59 61 59 58 57 57 57 58 60 61 62 63 64 65 65 66 66 67 63 63 64 65 63 62 61 59 57 55 54 54 52 50 50 49 50
52 55 59 61 60 57 58 57 55 58 63 62 62 62 58 55 53 53 54 54 53 54 54 57 60 61 63 63 62 63 65 66 64 62 62 63 64 61 60 58 55 53 52 51 49 49 48 47 49
54 55 57 58 59 57 57 53 55 61 57 62 61 54 51 51 51 51 51 51 52 54 54 55 57 60 61 63 61 62 63 63 62 61 62 61 62 63 60 57 56 52 51 50 49 48 46 46 47
55 52 54 55 55 56 56 51 54 62 59 58 55 49 50 50 50 48 49 49 49 51 52 53 57 58 59 60 60 59 60 60 60 61 61 61 60 58 57 57 56 55 51 50 48 47 45 44 46
49 47 43 54 53 54 54 47 58 62 56 55 49 45 47 48 48 48 49 49 49 49 50 52 55 54 57 58 58 59 59 58 59 59 59 61 62 60 57 57 57 56 51 49 47 45 44 43 43
42 39 41 49 55 52 50 47 57 62 56 49 45 46 46 45 46 47 47 47 47 48 48 50 52 51 53 56 57 57 58 57 57 57 58 61 60 60 59 57 57 55 52 47 48 44 44 42 41
40 39 43 43 51 49 48 48 54 57 55 49 44 44 44 44 44 47 46 47 47 47 48 48 50 50 52 52 53 54 54 54 55 55 58 60 59 58 57 55 54 53 51 48 45 45 42 42 42
44 42 41 45 53 47 48 46 52 55 52 46 44 44 44 43 46 46 46 45 46 46 46 47 47 47 49 47 47 49 49 49 52 57 57 59 58 57 55 54 53 51 50 51 49 43 43 41 40
44 41 41 46 50 47 47 47 52 51 48 47 44 43 42 42 43 45 44 44 43 43 44 45 46 46 46 48 46 46 46 47 47 53 55 55 57 56 55 53 52 50 49 48 47 47 41 41 40
43 41 42 44 46 44 41 41 47 45 45 46 44 44 43 41 40 41 42 41 42 41 42 44 45 45 45 45 47 47 46 45 46 46 49 50 51 53 53 53 51 50 49 47 47 46 46 42 39
41 48 46 43 39 35 40 31 40 44 41 41 40 38 39 39 40 41 40 40 40 39 41 42 43 44 45 44 43 41 40 39 39 40 42 44 45 45 47 49 50 49 48 48 46 47 46 44 42
45 46 44 41 37 33 35 32 37 40 37 37 37 38 38 38 39 39 39 40 39 39 38 39 41 41 42 42 42 41 39 40 40 40 40 41 42 42 42 42 43 45 47 46 46 45 44 44 44
47 44 41 36 35 27 36 35 34 38 41 37 37 38 39 38 38 39 40 40 38 37 36 37 39 39 40 40 39 38 37 38 37 37 37 38 39 40 40 40 39 40 40 42 44 44 44 44 45
43 38 29 26 24 26 36 31 37 37 40 40 37 36 37 37 37 38 37 37 36 35 35 39 37 36 37 37 37 37 36 36 35 35 35 35 36 37 37 37 37 37 38 39 39 40 41 41 42
40 40 29 22 21 26 32 30 36 36 38 39 39 37 38 37 38 38 37 36 36 36 35 35 35 35 35 36 34 34 34 34 35 34 34 34 34 35 36 35 36 36 36 37 37 35 35 36 38
40 35 39 31 17 22 30 30 36 37 35 36 36 37 36 37 37 37 37 36 36 35 35 35 35 34 34 34 34 34 33 32 32 32 32 32 32 36 34 33 33 34 35 34 34 33 32 32 33
42 44 32 29 17 17 26 29 31 32 33 35 35 35 35 37 37 36 36 36 37 37 36 35 35 34 34 34 33 34 33 33 32 32 30 30 30 31 31 31 32 33 32 31 31 31 32 31 32
38 35 36 36 29 21 17 27 36 36 37 35 36 37 36 36 36 36 36 37 36 35 35 34 35 34 34 34 34 33 33 33 33 31 31 31 30 30 31 31 31 31 30 31 29 30 31 30 31
38 38 38 26 25 26 27 30 39 39 38 37 36 38 36 36 36 36 35 35 34 35 34 34 34 34 34 34 33 33 33 31 30 31 31 29 31 32 29 30 30 31 30 30 29 29 29 28 30

GFSSGP_sfc_temp_027.txt.gz
Temp
66 66 63 63 55 50 44 48 50 54 54 58 60 59 56 57 59 53 64 67 67 68 71 73 75 77 77 76 76 75 76 77 77 77 77 76 76 76 76 76 76 76 77 76 75 74 73 72 72
65 69 64 55 49 42 46 49 52 55 58 58 60 59 57 56 62 63 62 68 68 69 71 72 73 76 76 76 75 75 76 76 77 77 76 76 76 76 76 76 75 76 76 75 74 73 72 72 72
67 67 60 50 43 44 46 51 52 58 59 58 57 59 57 59 62 62 66 68 67 68 71 72 72 75 76 75 75 75 75 76 77 77 76 76 76 76 76 75 75 75 75 74 74 73 71 71 71
65 62 56 50 44 48 49 51 54 56 59 61 57 56 60 61 63 64 66 66 66 66 69 71 73 75 75 75 75 75 76 76 76 76 77 76 76 75 75 74 74 74 73 73 73 72 71 70 70
60 55 49 45 46 51 51 55 56 55 54 56 57 58 59 62 62 62 64 65 65 65 67 69 72 74 75 75 75 75 75 76 76 76 76 76 76 75 74 74 75 74 74 73 72 71 70 69 69
56 53 46 42 45 53 54 55 56 55 55 58 55 55 58 62 61 61 63 62 65 65 66 68 69 71 73 74 74 74 75 75 75 75 76 76 75 75 75 75 76 74 74 72 72 70 69 68 68
53 48 43 40 46 50 55 59 53 54 53 56 58 53 59 62 66 64 61 60 62 65 66 67 69 69 68 70 71 72 73 74 74 74 75 74 74 73 73 72 73 74 74 72 71 69 68 67 67
53 50 42 41 46 48 57 58 57 55 55 62 60 54 54 60 62 60 58 59 58 63 65 65 67 68 69 69 67 68 70 71 71 71 70 69 69 70 70 68 70 73 73 72 71 69 68 67 66
54 47 43 45 47 50 57 57 58 58 55 57 60 57 61 62 59 57 56 60 59 62 62 64 65 67 69 69 67 66 67 68 68 68 66 65 67 66 65 64 68 71 71 71 70 68 67 65 63
51 44 48 53 52 50 56 53 55 57 57 53 55 62 61 60 57 58 57 57 57 58 60 61 63 65 66 68 67 65 68 69 69 69 69 67 65 65 65 62 65 68 67 69 70 68 65 58 49
49 48 52 55 57 55 54 53 55 51 53 57 56 59 59 59 55 54 52 51 52 56 58 60 61 63 64 67 65 63 64 65 67 67 67 66 64 63 62 62 62 60 61 59 61 58 52 50 48
48 54 54 57 57 55 53 56 56 53 60 60 56 55 53 51 50 49 49 49 49 51 52 53 56 61 62 63 66 65 63 63 63 65 65 63 63 62 61 60 60 60 58 55 53 51 50 48 48
50 53 56 59 57 55 55 55 53 57 60 58 56 53 49 48 48 49 49 49 49 49 50 51 52 57 61 61 61 62 66 65 66 63 62 62 60 61 60 60 59 58 56 53 51 50 48 47 47
53 54 55 57 57 54 54 51 51 59 58 56 52 48 46 47 46 46 47 47 48 49 49 51 52 53 59 61 60 60 61 66 64 61 61 61 60 59 59 58 57 56 56 53 50 49 47 46 45
53 51 53 54 53 53 54 48 51 60 55 52 46 43 45 46 46 44 45 45 46 47 48 50 53 53 56 58 58 59 59 59 59 60 60 60 60 60 59 58 57 57 55 53 50 47 45 44 45
48 45 42 51 51 51 52 47 56 58 52 47 43 41 43 44 44 44 45 45 45 46 47 49 51 51 52 56 57 58 58 58 58 58 59 61 61 60 58 57 56 56 54 54 51 46 44 43 42
42 38 39 47 52 50 49 46 55 56 51 44 41 41 43 42 43 44 45 44 44 45 46 47 49 48 50 53 55 55 55 55 56 58 59 60 60 60 58 57 56 55 53 52 51 47 47 43 42
39 37 40 42 47 48 45 47 52 54 52 43 40 39 40 41 41 44 44 44 44 44 45 46 47 47 50 51 54 54 53 52 55 55 56 58 58 57 57 56 55 53 52 50 49 48 46 45 42
42 40 40 42 50 44 45 44 50 52 46 40 39 39 40 40 43 44 43 43 43 43 44 44 44 45 46 46 44 47 47 48 48 52 51 53 54 55 55 54 53 52 52 50 49 47 47 45 44
41 38 39 44 48 46 45 46 48 44 42 42 40 38 39 39 40 42 41 40 40 40 42 43 43 43 44 45 43 44 44 44 45 48 49 48 49 49 52 52 50 50 49 48 47 47 45 45 44
41 39 39 42 44 42 39 40 42 40 41 41 40 40 39 38 37 38 38 37 37 37 37 41 42 42 42 44 44 44 43 42 42 42 43 43 45 45 45 47 49 49 48 47 47 46 46 44 43
39 45 45 42 38 34 38 30 39 39 36 37 37 35 36 36 37 38 37 36 36 35 36 39 40 40 42 42 42 40 38 37 36 38 40 41 41 41 41 42 43 44 46 46 45 47 46 44 43
44 44 42 40 36 33 35 31 36 37 33 34 34 35 35 36 36 36 36 37 36 35 34 35 38 38 39 39 39 38 37 36 37 37 38 38 40 40 39 39 39 39 39 40 42 44 44 44 43
46 42 39 35 34 26 35 35 32 35 37 34 35 35 36 35 36 36 37 37 35 34 34 34 37 36 37 38 37 36 34 35 34 34 34 35 36 37 37 37 37 37 37 37 37 37 40 42 42
41 38 29 26 24 26 33 29 36 36 36 39 36 35 35 36 35 35 35 34 34 34 34 36 35 34 34 35 35 34 33 33 33 32 31 31 32 34 34 34 34 35 35 36 36 35 35 35 36
39 39 29 22 21 26 31 28 36 34 35 39 38 37 35 35 36 35 35 34 34 34 33 33 33 33 33 33 32 32 32 31 31 31 30 31 31 31 32 32 32 33 33 34 34 32 32 32 32
38 35 39 30 16 21 30 31 34 35 33 33 34 34 34 35 35 35 35 35 34 33 33 33 32 32 32 32 32 31 31 31 30 30 29 29 29 33 31 30 30 31 31 31 30 30 29 29 30
40 43 32 29 19 18 26 28 32 30 31 33 33 33 35 35 35 34 34 34 34 34 33 33 33 32 32 32 32 31 31 31 30 29 29 28 29 29 29 29 29 29 30 30 30 30 30 28 29
37 34 34 34 29 22 17 29 35 36 35 34 35 36 35 35 34 34 34 34 34 33 33 32 33 33 32 33 32 31 31 30 30 30 29 28 28 29 29 29 29 29 29 29 28 27 28 28 29
36 37 37 31 26 25 26 32 38 37 39 38 37 37 36 35 35 34 34 33 33 34 33 33 33 32 32 32 31 32 31 30 29 29 29 28 28 28 28 28 28 28 29 28 28 28 28 27 28

GFSSGP_sfc_temp_030.txt.gz
Temp
65 65 62 63 55 48 42 46 48 53 52 56 58 57 54 56 57 51 62 66 65 67 70 72 75 77 77 76 76 75 76 77 77 77 77 77 76 76 76 76 76 76 77 76 75 74 73 73 72
64 67 63 53 48 41 44 47 50 52 55 56 57 57 56 54 60 64 62 66 66 67 70 72 73 76 76 76 75 75 76 76 77 77 77 76 76 76 76 76 75 76 75 75 74 73 73 72 72
65 65 59 49 42 42 45 49 50 56 57 56 55 57 56 57 61 61 63 66 66 67 69 71 72 75 76 75 75 75 76 76 77 76 76 76 76 76 76 75 75 75 74 74 74 73 72 71 71
64 62 55 49 43 46 47 49 52 54 57 59 55 54 58 60 60 61 63 65 65 65 68 70 73 75 76 76 75 75 76 76 76 76 76 76 76 76 75 75 75 74 74 73 73 72 71 70 70
58 55 48 44 44 48 50 52 53 53 52 54 55 55 56 61 61 61 61 64 64 64 67 68 72 74 75 75 75 75 75 76 76 76 76 76 75 75 75 75 76 75 74 73 72 71 70 69 69
56 52 45 41 43 50 52 53 54 53 53 55 54 52 56 60 59 60 60 58 63 64 66 68 68 71 73 74 74 74 75 75 75 75 75 76 75 74 75 75 75 75 75 73 72 70 69 68 68
52 47 42 39 43 47 52 55 52 52 52 54 56 51 57 60 63 60 59 59 60 62 64 65 67 68 68 70 71 72 73 73 74 74 74 73 74 73 73 73 74 74 74 73 71 69 68 68 67
51 49 40 39 44 46 53 55 55 53 53 61 57 53 53 56 61 60 61 60 60 61 63 64 65 69 68 68 66 68 70 71 71 71 70 69 69 70 70 68 71 73 73 72 71 69 68 67 66
52 46 42 45 47 49 53 53 55 55 53 57 58 55 59 61 60 59 57 57 58 61 60 62 63 68 70 70 66 65 66 68 68 68 67 66 66 68 66 65 68 71 71 71 70 68 67 64 61
50 44 47 50 49 48 52 51 53 55 54 51 55 58 57 54 52 51 49 50 50 51 55 58 61 64 67 69 69 67 67 68 69 69 69 68 66 65 65 63 65 67 67 69 70 68 63 56 48
47 47 50 53 54 53 52 51 52 50 51 51 53 54 52 49 49 48 47 46 46 48 51 52 53 59 66 67 67 66 65 64 67 68 69 68 65 63 63 62 62 63 62 61 61 55 52 50 47
46 52 52 55 55 53 51 54 51 53 52 55 50 49 47 46 46 45 45 46 46 47 49 50 50 51 60 67 68 66 64 64 64 64 66 65 63 62 61 61 61 60 60 59 57 53 50 49 48
48 50 53 55 54 53 53 53 50 54 54 52 50 48 45 44 44 45 45 46 46 46 47 49 49 49 53 61 65 65 65 63 63 63 62 63 62 61 61 60 59 59 58 58 55 53 50 48 48
50 51 53 55 53 52 53 49 50 49 51 49 47 43 42 43 43 43 44 44 44 46 46 48 50 50 51 58 60 62 63 65 65 64 63 62 62 61 60 58 58 57 57 56 55 53 49 47 46
51 48 51 51 50 52 52 48 50 51 51 45 42 40 42 42 43 41 42 42 43 44 46 47 50 50 53 57 59 59 60 62 61 61 60 61 60 60 60 59 58 58 56 55 53 52 50 48 45
46 44 41 49 49 49 50 46 52 52 50 43 41 39 40 42 42 42 43 42 43 43 44 47 49 49 53 54 56 57 57 58 58 59 60 60 61 61 59 58 57 57 55 54 53 51 47 48 47
41 38 38 46 49 48 47 45 52 51 47 40 38 39 40 40 41 41 42 41 42 42 43 45 47 47 50 53 53 53 54 54 53 52 54 56 56 57 58 57 56 56 54 53 52 49 50 48 47
38 36 39 41 45 46 43 47 52 50 46 38 36 37 38 38 39 41 41 41 41 41 43 44 45 45 47 51 51 50 49 50 51 50 50 51 51 54 54 54 53 53 52 50 49 48 46 46 47
42 39 40 41 47 43 45 44 49 45 39 37 36 36 37 38 40 40 40 39 39 40 41 42 42 43 45 43 42 45 43 45 45 47 48 49 48 50 49 50 51 51 50 49 48 46 45 45 44
41 39 39 43 46 45 43 44 44 41 39 39 37 36 37 37 37 39 38 37 37 37 38 40 41 41 43 42 42 42 41 41 42 44 43 43 43 44 47 47 47 48 48 48 47 46 45 45 45
39 38 37 42 41 40 36 39 37 37 38 38 38 38 37 36 36 36 36 34 34 34 34 38 38 39 40 41 42 41 40 39 39 39 40 40 41 41 41 41 42 44 45 44 45 45 44 42 44
37 43 43 40 37 33 37 30 36 35 34 35 35 34 34 35 35 35 34 33 33 33 34 36 38 38 39 40 40 38 36 35 34 35 36 38 38 38 39 39 39 39 39 38 40 43 44 43 41
41 43 40 38 35 31 33 30 35 35 33 32 33 34 34 34 35 35 34 35 34 34 32 33 36 37 37 37 37 37 35 34 33 33 35 35 36 36 36 36 37 36 37 36 36 37 37 39 39
44 41 38 34 33 25 35 35 32 33 37 33 34 34 35 34 34 34 35 35 34 33 33 33 34 34 35 35 35 34 33 32 33 31 32 32 32 34 34 34 33 34 34 34 34 34 35 35 36
40 37 29 26 24 26 31 29 35 37 36 37 35 34 34 34 33 33 33 33 33 32 32 34 33 32 32 33 33 32 31 30 30 29 29 29 29 29 30 31 31 31 31 32 32 31 31 31 32
38 38 30 23 21 26 30 27 36 34 35 36 38 36 34 33 34 34 34 33 33 33 32 32 32 31 31 31 30 30 30 29 29 29 28 28 28 28 29 28 29 29 29 29 29 29 29 29 29
37 34 38 29 15 21 30 32 34 33 31 32 32 33 33 33 33 34 34 33 33 32 32 32 31 31 31 30 30 29 29 29 28 27 28 27 28 31 29 28 28 28 28 28 27 27 27 26 27
39 42 33 29 19 17 27 28 33 32 32 30 31 32 32 34 34 33 33 33 33 33 32 32 31 31 30 30 30 29 29 28 28 28 28 28 28 29 28 28 27 27 27 27 26 26 27 26 27
36 33 34 35 30 22 17 28 35 36 33 31 33 35 34 34 34 33 33 34 34 33 31 31 31 31 31 31 30 30 29 28 29 28 27 27 27 27 27 28 27 27 27 26 25 25 26 25 26
34 36 35 32 26 24 25 32 34 35 35 37 36 36 35 35 34 34 34 33 32 32 32 32 31 31 32 31 30 31 30 29 28 27 27 26 26 27 27 27 26 26 26 26 25 25 25 25 25

GFSSGP_sfc_temp_033.txt.gz
Temp
69 68 68 66 60 54 51 56 60 61 63 66 66 67 66 68 64 60 73 72 71 72 74 76 75 77 77 76 76 76 76 77 77 77 77 77 77 77 77 76 76 77 77 76 75 74 74 73 73
68 71 66 58 52 48 52 57 58 62 65 65 65 66 66 66 70 72 72 71 72 72 74 75 73 76 76 76 75 75 76 77 77 77 77 77 76 76 77 76 76 76 76 75 74 74 73 72 72
69 68 63 53 48 48 52 58 60 63 64 65 65 67 67 68 72 71 71 71 71 72 73 74 73 76 76 76 75 75 76 76 77 77 77 76 76 76 76 75 75 76 75 74 74 73 72 71 72
67 65 59 53 51 54 56 60 61 63 65 65 65 65 69 71 71 69 70 70 70 71 72 72 73 75 76 76 75 75 76 76 76 76 76 76 76 76 75 75 75 76 75 73 73 72 71 71 71
61 59 52 49 51 55 58 61 62 61 62 65 64 64 66 70 71 70 70 69 70 69 71 72 72 74 75 76 76 75 76 76 76 76 76 76 75 75 75 75 76 75 75 74 72 71 70 70 70
58 56 49 48 51 56 59 60 62 61 62 64 64 63 66 68 68 68 69 69 69 69 69 71 68 70 72 75 75 75 75 75 75 75 76 75 75 75 75 75 75 75 75 73 72 70 69 69 69
55 50 47 48 49 53 58 60 60 61 61 63 65 62 67 67 64 66 66 66 67 68 68 70 71 69 67 70 71 73 73 74 74 74 74 73 73 73 74 73 74 74 74 73 71 69 68 68 67
53 52 47 47 51 52 58 60 61 62 63 66 66 62 62 63 63 64 64 63 64 64 65 67 68 70 71 73 66 68 70 71 71 71 70 69 69 69 70 69 71 73 73 72 70 69 68 67 66
56 49 45 49 50 54 58 58 61 61 62 62 64 61 56 56 58 58 57 57 57 59 58 60 63 68 70 71 69 65 67 68 68 69 68 68 74 72 69 67 69 71 71 71 70 68 66 62 60
53 47 51 54 54 55 57 57 58 60 59 60 62 58 55 54 53 52 52 52 53 54 55 57 57 59 66 69 70 68 70 73 73 72 72 72 71 69 67 64 65 67 68 69 69 67 62 59 60
51 51 53 56 57 58 56 56 58 57 55 59 58 55 52 51 50 50 50 49 49 52 54 55 55 56 59 67 69 68 68 70 69 71 71 70 67 66 66 64 64 65 63 64 63 61 60 60 59
51 53 54 57 57 56 55 57 56 56 57 53 50 50 48 48 47 47 47 48 49 50 52 53 54 54 57 64 67 67 67 66 66 66 70 72 66 64 64 63 63 63 62 61 61 59 60 59 57
51 52 54 56 55 55 54 55 56 54 50 50 49 47 46 46 46 47 47 48 48 48 50 51 52 54 55 61 65 66 66 65 65 64 64 64 68 66 63 63 64 65 64 62 59 58 56 59 57
53 52 54 55 55 54 54 52 54 52 49 47 46 44 44 44 44 45 45 46 46 47 48 50 52 54 57 62 64 63 64 65 64 63 62 62 62 62 62 61 61 60 60 62 62 58 59 59 56
52 50 53 53 52 54 54 49 51 53 49 45 43 43 43 43 44 43 44 44 45 46 47 49 53 56 58 60 60 60 59 60 59 60 60 60 61 61 60 60 60 59 58 57 56 55 54 54 55
48 47 44 51 51 51 53 48 51 51 50 44 42 42 42 43 43 43 44 44 45 45 46 49 51 54 55 55 55 55 54 54 54 55 56 57 58 59 58 57 56 57 56 55 54 52 52 51 51
43 41 41 48 51 50 50 49 51 51 48 42 41 41 42 42 43 43 43 43 44 44 45 47 49 50 53 53 53 53 52 52 53 52 52 53 55 56 56 55 54 55 54 52 52 50 49 49 49
40 39 41 42 48 48 46 49 49 49 46 41 39 40 40 40 40 42 42 42 43 43 45 46 48 48 50 52 52 50 49 48 48 48 49 50 51 52 53 52 52 53 53 51 50 49 48 46 45
43 41 43 43 48 46 46 46 51 44 40 38 38 39 39 40 42 42 41 41 41 42 43 43 44 45 48 48 48 48 45 45 45 45 45 46 46 48 49 50 51 52 50 49 50 49 48 47 46
42 40 40 44 46 45 44 44 47 43 41 41 39 38 39 39 40 40 40 39 39 39 40 41 42 43 45 46 45 46 44 43 44 44 44 44 44 44 45 45 45 46 48 47 48 48 49 50 49
40 40 38 42 42 42 40 41 40 38 39 39 39 39 39 39 38 38 38 37 38 37 37 40 41 41 42 44 45 45 44 43 43 42 42 41 43 43 42 43 43 43 44 43 44 44 45 45 48
37 43 43 41 39 35 40 33 39 37 35 36 36 36 37 38 38 38 37 37 37 37 38 39 39 41 41 43 42 41 40 38 38 39 39 40 40 40 40 41 41 41 41 41 42 43 43 44 42
41 42 41 39 37 35 35 33 37 36 36 34 35 35 36 37 37 37 36 37 37 37 36 37 39 39 39 40 41 40 37 37 38 38 38 38 38 38 38 38 39 38 39 39 39 40 40 41 41
43 40 38 35 34 27 36 36 35 36 39 34 36 36 36 36 36 36 37 37 36 36 36 37 37 36 37 38 38 38 37 36 36 36 36 36 36 36 36 36 36 37 37 37 37 37 38 38 39
39 38 29 27 26 27 33 31 38 41 39 39 38 36 36 36 35 35 35 35 35 35 36 37 36 34 35 36 36 36 35 35 35 34 34 34 34 34 34 35 34 35 35 35 36 35 35 35 36
37 39 30 23 23 27 30 28 38 37 36 37 39 38 37 35 35 35 35 35 35 35 35 35 34 34 34 34 34 34 34 34 34 34 34 33 33 33 34 34 34 34 34 34 34 34 34 34 34
38 35 39 28 15 22 31 34 39 35 34 34 34 35 35 35 35 35 35 35 35 34 34 34 34 33 33 33 33 33 33 33 32 32 33 33 33 34 33 32 32 32 32 32 32 31 31 32 32
40 43 33 30 22 19 28 30 35 34 35 32 31 34 35 35 34 35 35 35 35 35 34 34 34 33 33 33 33 33 32 32 32 33 32 32 32 32 32 32 32 31 31 31 30 30 30 30 30
36 35 34 36 32 24 20 29 37 39 37 33 34 36 36 35 36 36 36 35 35 34 33 33 33 33 33 33 33 33 32 32 32 32 31 31 31 31 30 30 30 30 29 30 29 29 30 28 29
35 37 37 32 26 25 26 33 36 37 38 37 36 37 36 38 37 36 36 35 34 34 33 33 33 33 34 33 32 33 32 32 31 30 30 30 29 29 29 28 28 28 28 28 27 27 27 27 27

GFSSGP_sfc_temp_036.txt.gz
Temp
79 83 89 86 74 74 64 65 72 70 71 76 76 75 76 77 72 67 82 83 80 82 83 81 76 78 77 76 76 76 76 77 77 77 77 77 77 77 76 76 76 77 77 76 75 74 74 73 73
85 83 87 82 71 64 64 69 68 72 74 76 75 76 76 73 80 80 82 81 80 83 83 84 74 77 77 76 75 76 76 77 77 77 77 77 77 77 76 76 76 76 76 75 74 74 73 73 73
82 82 82 76 71 64 64 69 72 73 75 75 75 78 77 75 80 81 81 81 80 82 83 83 73 76 77 76 75 76 76 77 77 77 77 77 76 76 76 76 76 75 74 74 73 73 72 72 72
83 85 80 73 64 66 69 72 74 74 75 75 76 75 79 79 78 79 79 81 81 81 82 76 73 76 77 76 75 76 76 76 77 77 77 77 76 76 76 76 76 75 75 74 73 72 71 71 71
84 81 72 66 64 67 71 73 74 73 74 76 75 73 75 78 80 80 80 80 80 80 81 80 73 74 76 76 76 75 76 76 76 76 76 76 76 75 76 76 75 75 74 73 72 71 70 70 70
79 77 69 64 65 68 71 73 74 74 74 75 76 75 73 77 76 77 79 79 80 78 77 79 71 70 73 75 76 75 75 75 75 76 76 75 75 75 75 75 75 75 74 72 71 70 69 69 69
73 73 65 66 65 67 70 73 73 74 74 73 76 73 76 77 73 75 76 77 76 76 76 77 78 74 67 70 72 74 74 74 75 75 75 74 74 74 74 73 74 74 74 72 70 69 68 68 67
76 74 63 65 64 65 71 72 74 74 73 76 77 72 72 72 70 74 75 75 74 72 72 72 73 73 75 80 66 68 71 71 72 72 71 70 69 71 70 69 72 73 73 71 69 68 67 66 65
72 70 63 64 64 68 71 71 73 73 74 74 71 69 64 66 70 72 72 73 72 71 70 70 70 68 71 74 74 67 66 68 69 70 67 69 79 76 74 69 69 71 71 71 69 68 65 63 62
72 68 65 70 71 70 70 71 71 71 71 71 69 66 65 67 67 67 66 67 67 66 67 68 69 70 68 71 72 73 75 79 80 80 80 76 80 76 72 66 66 68 68 69 69 66 63 65 71
66 68 67 68 70 71 69 69 71 70 68 69 68 64 62 64 64 63 63 62 62 64 67 66 66 67 70 72 72 72 71 77 79 79 75 74 70 68 69 68 68 68 64 68 69 67 70 69 71
66 66 67 66 67 67 67 70 68 69 66 62 61 60 61 61 60 59 59 60 61 63 63 64 65 66 67 73 72 71 70 73 73 69 73 77 76 70 68 68 66 65 67 68 65 65 66 69 67
65 65 65 67 65 66 65 67 68 65 60 60 59 58 59 59 57 58 58 59 60 60 61 62 64 65 67 69 71 69 68 68 66 66 66 68 68 71 73 71 67 68 67 71 69 64 61 64 67
66 64 66 66 66 65 64 65 65 60 60 58 58 58 57 56 55 57 57 58 57 58 59 60 58 61 69 71 66 64 64 63 64 65 64 64 64 64 65 64 64 65 65 66 62 60 59 58 58
64 63 66 67 65 65 65 58 61 63 60 57 55 55 54 54 55 54 55 56 56 58 58 54 56 59 59 58 57 57 57 58 58 59 61 62 62 63 62 60 59 58 58 58 58 55 57 58 59
61 61 59 63 62 62 63 61 62 61 60 58 55 55 54 52 53 54 54 55 56 57 56 54 55 55 55 55 55 55 55 58 59 59 60 59 59 60 59 56 55 57 57 57 56 56 55 55 54
58 57 56 59 62 61 61 61 62 61 61 58 56 54 53 53 54 53 53 53 54 55 56 53 54 53 53 53 53 52 53 55 57 57 58 56 58 58 57 58 58 59 56 55 55 54 55 55 55
55 54 54 57 61 59 59 62 60 60 59 57 55 54 53 52 50 51 52 52 53 55 57 56 54 54 54 54 53 53 53 53 54 55 56 57 57 59 59 59 58 59 58 57 58 57 57 56 55
59 56 57 58 59 58 60 61 62 58 56 54 53 53 52 51 51 52 51 52 53 54 55 56 57 58 61 59 58 56 53 54 52 53 53 55 55 56 56 56 56 58 55 55 56 57 57 57 58
55 55 56 57 56 56 59 57 64 55 57 57 54 52 52 50 51 50 51 52 52 52 53 53 54 56 56 57 56 55 53 52 53 52 51 53 52 52 53 53 52 54 54 53 53 53 55 55 56
53 53 55 54 53 54 53 54 58 53 49 50 52 54 52 52 50 50 49 50 52 50 51 51 52 53 55 54 54 53 53 53 51 50 49 49 51 50 49 50 50 50 51 49 50 51 50 51 53
51 56 54 51 50 47 52 47 53 54 49 46 47 49 50 50 50 49 49 50 49 48 49 50 51 52 53 54 55 54 51 47 48 48 48 47 48 48 48 48 49 48 49 48 48 50 49 49 46
53 52 52 51 49 46 47 45 54 47 47 45 47 49 50 50 50 48 47 46 46 47 47 49 50 50 51 52 52 51 48 48 48 48 47 47 46 46 46 46 47 46 46 46 46 46 47 48 47
51 50 48 47 47 38 47 46 51 51 52 51 48 48 48 48 48 48 46 45 45 46 46 48 47 47 49 50 51 50 47 47 46 46 45 45 46 45 45 44 44 45 45 44 44 45 44 44 45
52 50 41 37 36 36 41 42 52 57 50 52 47 47 48 48 47 46 45 45 45 45 45 46 47 45 47 48 48 48 48 48 46 46 46 45 44 43 42 43 43 43 42 43 43 42 42 42 42
48 51 43 32 33 40 36 37 49 47 46 46 51 50 48 47 47 46 46 46 45 44 45 46 46 44 45 46 45 46 47 47 46 45 45 44 43 42 42 42 42 41 41 41 40 40 39 39 39
46 42 50 36 27 35 45 46 52 43 43 43 45 46 45 45 46 46 46 46 45 45 45 45 45 44 44 44 45 44 45 45 43 43 44 43 42 41 40 40 39 39 38 38 38 37 36 37 37
49 51 39 41 31 31 42 43 49 43 45 42 41 43 46 46 46 46 46 46 46 46 45 46 45 44 44 44 44 44 43 43 43 43 41 41 40 40 39 39 39 39 38 38 38 37 37 36 37
42 43 44 46 42 36 37 45 54 54 51 45 45 45 47 46 46 46 47 47 46 45 44 44 44 43 43 43 43 42 41 42 42 41 41 40 39 38 37 37 36 36 35 35 35 35 35 33 34
51 48 47 41 33 37 36 44 47 50 52 50 49 46 48 48 47 47 48 46 45 43 43 43 44 43 43 43 42 42 41 41 41 40 39 38 38 36 35 35 34 34 33 33 33 32 33 32 32

GFSSGP_sfc_temp_042.txt.gz
Temp
77 85 84 76 62 62 57 59 67 67 66 71 71 71 66 68 65 54 74 78 80 80 78 77 76 76 76 76 76 76 77 77 77 77 77 77 77 77 77 76 76 76 76 76 74 74 74 73 74
80 87 77 71 58 54 55 65 64 67 70 72 70 71 69 63 73 72 71 79 80 82 80 78 74 76 76 75 76 76 76 77 77 77 77 77 77 77 76 76 75 75 75 75 74 73 73 73 73
81 86 69 64 60 56 56 66 66 70 70 69 68 73 68 65 71 71 73 79 81 80 81 78 75 76 76 76 75 76 76 76 77 77 77 77 76 76 76 76 75 75 74 74 73 72 72 72 72
80 75 72 60 58 63 65 68 70 69 71 71 71 63 68 71 71 73 78 79 79 79 78 74 76 77 77 76 75 75 75 76 77 77 77 77 76 76 75 75 74 74 73 73 72 71 71 71 71
77 72 61 58 60 63 69 72 68 69 67 69 67 63 63 70 75 76 76 79 77 76 75 75 75 76 77 77 76 75 76 76 76 76 76 76 75 75 75 75 74 73 73 72 72 71 70 70 70
68 70 58 55 60 65 68 70 68 69 70 66 66 65 60 69 70 72 75 73 77 75 77 75 71 70 70 74 76 75 75 75 75 75 75 76 75 75 75 74 74 73 72 72 71 70 69 69 69
64 62 58 59 60 61 67 69 63 67 67 66 69 62 61 64 66 71 71 71 70 72 74 74 74 71 67 68 70 73 74 74 75 74 75 74 73 73 73 73 73 73 72 71 70 69 69 68 68
67 64 58 57 60 60 68 69 70 69 64 71 70 60 57 59 65 69 70 69 67 68 68 69 73 73 73 73 66 68 71 72 72 72 71 70 70 70 70 69 72 72 72 71 70 69 68 68 67
69 57 56 58 59 63 69 66 67 67 67 66 66 61 61 64 69 67 65 66 65 67 65 65 66 68 73 73 68 65 68 69 69 69 67 65 69 70 69 67 70 71 70 70 69 68 67 66 65
62 56 60 67 67 64 68 67 68 64 66 60 60 63 65 65 64 64 62 60 61 61 62 63 63 64 66 72 72 72 72 70 70 70 69 70 71 69 69 65 66 68 68 69 68 67 66 64 61
63 58 65 67 68 69 68 63 66 62 62 62 63 61 63 63 62 61 60 59 57 58 61 62 62 63 64 66 68 69 69 68 70 69 70 69 68 66 65 62 63 65 64 66 63 62 61 62 60
58 65 67 67 65 66 64 66 62 64 57 64 62 63 62 60 58 57 57 56 56 58 59 59 59 61 63 63 69 67 66 64 65 66 66 67 66 65 65 63 63 63 64 65 64 61 61 59 61
61 64 66 67 63 63 66 61 63 60 60 62 62 63 59 58 58 57 58 57 57 56 56 55 57 58 63 63 65 63 63 62 62 62 63 65 65 62 63 62 63 61 63 63 61 60 60 58 60
63 64 65 66 65 64 60 61 61 62 61 59 61 58 56 56 55 56 55 54 55 56 53 57 58 58 59 59 59 59 59 60 59 59 60 60 60 60 59 59 58 58 58 58 58 56 56 57 56
63 57 62 63 64 61 61 56 58 62 61 59 58 55 55 56 56 53 53 54 53 53 55 55 56 57 55 55 57 57 58 59 58 59 59 58 58 58 57 56 55 55 56 55 55 56 56 56 56
57 56 50 61 63 59 57 50 61 60 58 56 56 54 54 54 55 54 54 54 54 52 53 54 55 54 53 54 56 57 58 59 58 58 56 57 57 55 54 55 54 55 55 55 54 52 52 51 51
55 47 52 54 62 58 55 52 57 60 59 56 55 55 55 53 53 52 53 52 53 52 54 53 53 52 51 52 53 54 57 57 57 56 53 55 56 56 54 53 53 53 52 51 52 51 51 49 48
49 48 54 51 57 57 53 52 57 58 58 57 55 55 53 53 52 52 52 52 53 55 54 53 52 52 52 52 53 53 53 53 52 50 52 53 53 53 51 51 51 50 49 48 48 49 49 47 46
57 53 51 55 57 54 54 55 60 58 56 55 55 54 53 52 51 51 51 51 52 55 54 53 52 53 54 53 53 51 48 47 46 48 48 49 49 50 48 48 48 48 46 45 47 46 46 46 47
56 52 50 56 57 52 53 53 59 58 57 58 59 54 53 49 48 50 49 49 50 54 55 55 55 54 56 54 52 48 45 45 46 45 47 47 47 46 48 45 44 44 44 43 43 42 42 42 44
53 50 50 51 52 51 47 46 53 59 60 59 59 57 55 49 47 47 48 47 48 48 52 54 54 51 50 49 50 49 46 44 42 42 43 44 46 45 43 43 42 42 41 40 39 40 39 37 39
48 56 55 52 46 39 48 35 48 55 57 56 57 53 51 50 50 48 48 46 46 46 47 48 49 49 49 49 47 46 43 41 40 40 41 42 42 42 42 42 41 40 39 39 39 40 38 37 35
50 54 51 48 44 40 41 39 45 54 54 55 54 50 50 50 49 48 46 47 45 45 44 45 47 48 48 48 47 45 42 41 40 40 39 39 39 40 40 39 39 38 38 37 37 36 36 36 34
54 50 47 44 42 31 42 42 41 51 54 55 52 51 50 49 48 47 45 44 42 42 43 43 44 45 46 46 45 43 42 41 39 38 37 37 37 37 38 39 37 37 36 36 35 35 34 34 34
50 44 33 29 27 29 42 39 46 53 53 55 52 51 50 49 48 45 42 41 41 41 41 42 42 43 44 44 44 43 42 41 39 38 37 36 35 34 35 36 35 34 35 35 34 32 32 32 31
44 46 33 27 27 30 34 32 43 48 49 51 55 53 52 49 48 44 42 43 42 41 40 41 41 42 42 42 42 42 42 40 39 39 37 36 34 34 36 35 35 34 34 34 33 31 31 30 29
44 39 50 36 26 26 36 41 50 45 43 44 47 49 49 48 47 44 44 43 41 40 40 41 41 41 41 41 40 41 41 40 38 38 37 35 35 37 35 34 33 33 32 32 32 29 28 28 29
46 49 36 35 22 23 34 38 42 39 43 42 45 47 48 48 47 45 44 43 42 41 41 41 41 40 40 40 40 40 39 38 38 37 35 34 33 34 33 33 32 32 31 30 30 28 28 28 27
40 39 42 43 35 27 27 37 50 50 49 44 46 48 48 47 47 46 45 45 44 42 41 41 41 40 39 39 39 37 36 37 37 35 34 33 33 33 32 32 31 31 30 29 28 28 28 27 27
47 44 44 33 32 35 31 40 49 48 50 48 47 48 48 48 47 47 46 45 42 42 41 41 40 39 38 38 37 36 37 36 34 34 34 32 31 32 31 31 30 30 30 29 28 28 28 27 27

GFSSGP_sfc_temp_045.txt.gz
Temp
69 73 69 69 58 53 47 53 56 58 59 63 66 66 60 59 59 50 70 74 75 74 75 75 75 76 76 76 76 76 76 77 77 77 77 77 77 77 77 76 76 76 76 75 75 74 74 74 73
68 77 69 61 52 45 47 52 57 58 64 68 67 64 62 57 66 67 66 75 76 75 76 75 74 76 76 75 75 76 76 77 77 77 77 76 77 76 76 76 75 75 75 74 74 74 73 73 73
72 75 63 56 50 46 49 53 59 62 65 64 64 65 60 59 65 66 70 75 76 76 76 76 74 76 76 75 75 76 76 76 77 77 77 76 76 76 75 75 74 74 74 73 73 73 72 72 72
71 67 63 54 50 56 57 57 62 63 65 69 62 57 61 65 66 69 73 76 75 75 78 73 75 76 76 76 75 75 76 76 76 77 77 76 76 75 75 74 73 73 73 73 72 72 71 71 71
67 61 53 49 52 57 57 63 63 61 60 63 63 57 57 65 69 70 70 73 72 71 74 74 74 76 76 76 75 75 75 76 76 76 76 76 75 75 74 74 73 73 72 72 72 71 71 70 70
62 60 50 46 50 59 59 63 64 61 62 62 60 57 55 61 67 66 68 67 70 71 72 73 69 68 70 74 75 75 75 75 75 75 75 75 75 75 74 74 73 73 72 72 71 70 70 70 70
58 53 48 47 51 54 61 63 59 62 58 60 64 54 54 58 62 66 65 65 66 68 70 71 71 69 66 67 70 73 74 74 74 74 74 73 73 73 73 72 73 73 73 72 71 70 70 70 70
59 56 49 48 53 53 62 63 64 64 58 64 62 54 51 57 64 65 63 63 63 64 64 66 70 72 70 70 65 70 71 71 72 70 70 68 69 70 69 69 71 72 72 71 70 69 69 69 69
60 51 48 52 54 56 62 60 63 63 63 60 59 56 58 63 65 62 59 59 59 62 61 62 62 64 70 70 66 65 68 69 68 68 66 64 67 69 69 67 69 71 70 70 69 68 67 66 65
55 48 51 57 57 57 63 61 63 60 58 54 54 58 60 60 59 57 55 54 55 55 57 58 59 61 64 70 69 71 69 68 69 69 67 68 68 68 68 64 65 67 67 68 69 67 65 62 58
55 51 57 59 60 62 63 60 61 61 54 57 57 57 58 57 56 55 54 53 53 52 55 56 56 58 61 63 69 68 66 66 67 68 68 67 66 64 62 61 61 64 62 62 63 60 61 59 58
52 59 60 61 61 61 58 61 58 58 55 57 58 58 56 55 54 53 53 53 52 53 52 54 55 56 58 61 66 65 64 63 63 64 66 66 64 63 62 63 64 63 63 62 59 58 60 59 60
54 57 61 61 59 58 61 57 57 54 54 58 59 58 54 53 53 53 53 53 53 50 50 52 55 55 58 63 63 62 61 60 60 61 62 63 61 61 61 60 60 60 61 61 59 57 57 57 57
57 58 59 60 60 59 58 55 56 54 54 55 56 53 52 53 53 51 51 51 51 51 50 52 53 54 58 59 59 58 59 57 59 59 59 59 59 58 58 57 57 56 57 57 56 54 56 53 53
58 53 56 58 59 57 58 53 56 56 55 54 52 50 51 53 52 50 51 51 49 50 51 51 53 54 56 56 57 57 58 58 57 57 57 56 56 54 53 53 53 54 53 53 53 53 55 51 52
51 50 45 55 58 56 56 47 55 55 53 51 50 48 50 51 51 50 51 51 49 49 49 50 54 53 54 55 56 57 57 56 57 57 56 55 54 53 52 51 51 50 50 51 50 49 48 47 47
46 41 45 52 56 54 52 49 52 54 54 50 49 48 49 49 48 48 50 49 48 48 49 50 51 51 52 54 55 55 55 54 54 54 52 52 53 52 51 50 49 49 48 48 49 48 46 44 44
43 42 48 47 54 51 48 49 52 54 54 51 49 48 48 48 48 49 49 49 49 48 50 52 51 51 52 53 53 52 51 50 51 51 48 50 50 49 49 48 46 46 45 45 47 46 44 42 41
48 45 45 49 54 51 49 49 53 54 51 50 48 49 49 49 47 48 49 48 48 49 50 51 51 51 52 52 50 48 47 47 46 46 45 46 47 47 46 45 45 44 43 41 43 43 42 42 40
50 46 46 50 53 50 49 48 53 52 53 55 54 52 51 45 45 46 46 46 47 48 52 52 52 54 54 54 51 49 47 45 43 44 44 44 44 44 45 43 42 41 42 40 39 39 38 38 39
48 46 44 48 48 47 44 42 48 54 54 55 57 56 53 47 45 44 45 44 45 47 52 53 53 53 52 51 49 47 45 42 42 40 41 41 43 42 41 41 40 40 40 38 36 36 37 35 36
44 51 51 49 43 37 44 36 44 49 51 51 56 51 51 46 46 46 45 43 43 45 50 52 51 50 50 50 47 45 43 40 37 38 38 39 40 40 40 40 39 38 38 36 36 37 34 34 32
47 50 48 45 41 36 38 35 42 49 50 55 54 54 50 48 47 45 45 45 43 43 42 47 48 45 46 47 46 43 40 40 39 38 37 37 38 38 38 38 37 36 36 35 34 33 33 33 32
51 47 45 42 39 29 39 38 38 48 52 57 52 49 47 46 46 46 44 43 41 40 40 41 43 44 44 44 43 42 40 38 37 36 36 36 36 36 36 36 35 35 34 34 33 32 31 31 31
48 42 31 28 26 30 39 36 46 49 53 54 52 46 46 46 44 43 41 41 39 39 39 40 41 41 42 43 41 41 40 40 39 37 36 35 35 33 34 34 33 33 33 33 32 30 30 30 29
42 43 32 26 25 28 34 31 42 51 53 48 52 51 47 45 45 43 41 41 40 40 38 40 41 40 40 41 40 41 40 40 40 38 37 35 34 33 33 33 33 33 33 32 31 29 29 29 27
41 39 48 35 21 24 33 39 46 45 45 44 45 47 46 45 43 41 40 40 40 39 39 41 40 39 41 41 40 40 39 39 39 36 35 34 33 35 33 32 31 31 31 31 29 28 27 27 27
45 47 35 32 22 21 30 33 40 41 45 43 43 44 43 44 42 41 41 41 40 41 40 40 41 41 40 39 40 40 38 38 37 36 34 34 32 32 32 31 30 30 30 29 28 27 27 27 26
41 38 40 41 32 27 27 36 45 48 49 44 44 45 46 44 42 42 42 41 40 40 40 40 39 38 38 39 37 37 36 36 36 34 33 32 31 31 31 30 30 29 28 28 27 27 27 27 27
42 42 40 35 31 30 29 41 47 45 45 46 45 46 47 47 44 43 42 41 40 40 39 39 39 38 38 38 37 35 36 34 34 33 32 31 31 31 30 29 29 29 29 28 28 27 27 26 26

GFSSGP_sfc_temp_048.txt.gz
Temp
68 69 67 67 57 51 44 49 51 55 57 60 60 61 57 56 57 50 66 69 72 72 73 74 75 76 76 76 76 76 76 77 77 77 77 77 77 76 76 75 75 75 75 75 75 74 74 73 73
67 74 67 58 50 42 45 49 55 55 61 60 63 59 58 54 62 63 63 71 73 73 74 74 73 75 75 75 76 76 76 76 77 77 77 76 76 76 75 75 74 74 74 74 74 74 73 73 73
70 71 63 54 46 44 46 52 57 61 62 60 59 60 56 56 62 63 67 72 73 72 74 74 73 75 75 75 75 75 76 76 76 76 76 76 76 75 74 74 74 74 74 74 74 73 72 72 72
69 65 60 52 47 49 54 56 58 60 61 64 58 55 58 61 63 65 70 72 71 72 74 71 74 75 75 75 75 75 76 76 76 76 76 76 75 74 74 73 73 73 73 73 73 72 72 71 72
63 59 51 47 49 53 52 57 60 58 57 58 58 53 54 62 64 65 66 70 70 71 73 72 73 75 75 75 75 75 75 76 76 76 76 75 75 74 73 73 73 73 73 72 72 72 71 71 71
60 57 48 44 47 54 56 60 61 57 57 57 56 54 54 60 63 63 65 64 67 70 73 73 68 69 73 74 74 74 75 75 74 75 75 75 74 74 73 73 73 73 72 72 72 71 71 71 71
56 51 47 44 49 51 59 63 59 59 57 56 60 52 52 57 61 63 63 63 64 66 67 69 70 67 67 69 71 72 73 74 74 74 74 73 73 73 72 72 73 73 72 71 71 71 71 71 70
56 53 47 44 50 52 58 59 59 59 55 60 57 51 51 58 61 61 61 61 61 62 62 66 69 70 70 68 66 69 70 71 72 71 70 69 69 70 69 69 71 72 72 71 70 70 70 70 69
56 49 45 47 51 54 57 58 59 59 59 55 56 54 55 61 60 58 56 57 58 60 60 60 63 67 70 70 66 66 68 68 68 67 66 65 66 68 68 67 69 70 70 70 69 68 67 65 65
53 46 51 54 53 54 59 59 61 58 55 51 51 54 56 59 57 55 53 54 52 53 55 56 57 60 64 70 68 69 68 67 67 67 66 66 67 67 67 63 65 67 67 68 69 67 64 61 56
52 50 55 56 57 59 59 56 58 57 52 55 55 55 55 54 53 53 52 52 52 50 53 54 55 56 58 65 68 67 66 66 66 68 67 67 66 64 63 61 61 63 60 59 60 58 58 57 56
51 55 57 59 58 59 58 59 57 56 57 57 58 56 53 53 52 52 51 52 51 50 49 52 54 55 56 60 65 64 64 63 63 64 67 65 64 63 61 63 63 62 62 59 57 56 56 55 57
52 54 58 58 58 56 58 55 56 54 50 54 56 56 53 52 51 51 52 51 50 49 48 51 52 54 57 63 62 61 60 60 61 61 62 63 63 61 61 60 59 59 60 59 55 54 54 53 54
56 55 56 58 57 57 57 53 55 52 52 52 54 51 50 51 51 49 49 50 50 50 49 50 51 58 61 59 59 58 59 58 58 58 59 60 60 59 58 57 56 56 57 56 55 54 53 50 51
55 51 53 56 56 55 56 51 54 53 52 51 50 48 49 50 50 49 50 49 49 49 50 50 51 56 56 55 57 57 57 57 57 57 57 56 57 56 55 55 54 54 55 53 53 50 52 48 49
49 48 44 52 55 54 55 46 54 51 51 49 48 46 48 49 50 49 49 49 48 48 48 49 53 53 52 56 56 57 56 56 56 56 56 55 54 52 50 49 47 48 48 49 46 46 45 44 45
44 40 42 49 54 52 51 47 52 49 50 48 46 46 47 47 47 47 48 47 47 47 47 46 50 51 51 54 54 53 53 53 53 53 53 52 50 50 49 47 46 46 47 46 47 43 42 41 43
40 40 43 44 50 48 45 48 50 50 50 50 47 46 46 47 48 47 47 47 47 46 46 47 50 52 52 52 51 51 50 49 50 50 50 48 48 48 46 44 43 44 44 43 43 41 40 39 40
46 43 43 46 53 49 47 48 53 51 48 47 47 47 47 48 47 46 47 46 45 45 46 47 48 51 52 51 49 49 46 46 46 47 47 45 45 45 44 42 42 42 41 40 42 40 40 39 38
46 43 42 47 51 49 47 46 50 49 50 53 53 51 50 45 44 45 44 44 44 45 46 46 48 51 53 53 49 48 46 45 45 45 43 42 43 42 43 41 40 40 41 39 38 40 38 36 35
45 42 41 46 45 45 41 40 46 52 51 52 55 57 54 49 46 44 44 44 44 44 44 47 48 51 51 50 48 45 45 45 43 41 39 39 41 40 40 39 39 38 38 37 36 37 38 35 35
41 49 48 46 41 36 41 34 42 47 49 50 55 53 53 49 47 46 45 43 44 44 45 47 48 48 50 50 47 46 42 40 38 37 37 37 38 38 38 38 37 36 36 36 36 37 35 35 34
46 49 46 43 38 34 36 33 39 44 45 50 57 53 51 48 47 45 46 47 45 44 44 45 47 49 49 49 48 45 40 39 37 36 35 34 35 36 36 36 36 35 36 34 35 34 33 33 31
50 46 42 38 37 29 39 37 36 44 51 52 56 56 50 47 46 47 46 45 42 41 41 47 48 47 47 47 45 44 39 37 36 34 34 32 33 33 34 35 34 34 34 33 32 31 32 31 30
47 43 30 28 26 30 36 33 45 48 51 55 58 53 46 46 45 43 41 42 42 40 40 43 47 44 44 44 41 40 40 39 37 36 35 33 33 31 32 34 33 33 32 32 32 31 30 30 29
42 42 32 25 24 28 33 30 40 48 54 49 48 48 43 42 44 43 43 43 42 41 40 42 44 43 40 40 39 39 39 39 38 37 35 34 33 33 33 33 33 32 32 31 30 29 29 28 27
42 38 47 35 18 23 33 38 45 46 47 47 47 43 40 41 42 42 42 42 41 40 40 41 40 40 40 40 39 38 39 37 36 34 33 33 32 34 32 31 31 30 30 30 29 28 27 26 27
44 47 35 31 22 20 29 31 39 40 45 49 48 41 40 40 39 40 40 40 41 41 40 40 41 40 40 39 40 39 39 37 36 35 33 33 31 32 31 30 30 29 30 29 28 27 27 26 26
39 38 38 39 32 26 22 34 42 49 48 48 48 44 41 40 40 40 40 40 40 39 38 38 38 37 37 39 39 37 35 36 36 35 33 32 32 31 31 30 29 29 28 28 27 27 27 27 26
38 39 38 31 29 29 28 39 47 46 47 47 48 45 42 43 41 41 40 38 37 37 38 38 38 38 38 38 37 37 36 35 33 33 32 31 31 31 31 30 29 29 28 28 27 27 27 26 27